Today

Time Wind Dr Wind Spd
mph
Wind Gust
mph
Hum In
%
Humid
%
TempI
F
Temp
F
Raw Bar
in
Tot Rain
in
UV Solar
W/sqm
DailyRain
in
HourRain
in
24HrRain
in
RainRate
in
05/04/26 12:01:20 AM 35 5.0 6.0 51 74 67.8 56.8 29.985 7.14 0.0 0 0.00 0.00 0.00 0.00
05/04/26 12:02:32 AM 34 2.0 6.0 51 74 67.8 56.8 29.984 7.14 0.0 0 0.00 0.00 0.00 0.00
05/04/26 12:03:24 AM 37 3.0 6.0 51 74 67.8 56.8 29.986 7.14 0.0 0 0.00 0.00 0.00 0.00
05/04/26 12:04:18 AM 32 1.0 6.0 51 74 67.8 56.7 29.987 7.14 0.0 0 0.00 0.00 0.00 0.00
05/04/26 12:05:24 AM 37 5.0 9.0 51 74 67.7 56.7 29.991 7.14 0.0 0 0.00 0.00 0.00 0.00
05/04/26 12:06:19 AM 35 4.0 9.0 51 74 67.8 56.7 30.000 7.14 0.0 0 0.00 0.00 0.00 0.00
05/04/26 12:07:31 AM 36 7.0 9.0 51 74 67.8 56.7 30.004 7.14 0.0 0 0.00 0.00 0.00 0.00
05/04/26 12:08:56 AM 37 6.0 9.0 51 74 67.8 56.7 30.005 7.14 0.0 0 0.00 0.00 0.00 0.00
05/04/26 12:09:29 AM 38 9.0 9.0 51 74 67.8 56.7 30.008 7.14 0.0 0 0.00 0.00 0.00 0.00
05/04/26 12:10:20 AM 38 6.0 9.0 51 74 67.8 56.6 30.007 7.14 0.0 0 0.00 0.00 0.00 0.00
05/04/26 12:11:27 AM 36 5.0 9.0 51 74 67.8 56.6 30.007 7.14 0.0 0 0.00 0.00 0.00 0.00
05/04/26 12:12:18 AM 36 6.0 9.0 51 74 67.9 56.6 30.003 7.14 0.0 0 0.00 0.00 0.00 0.00
05/04/26 12:13:30 AM 34 3.0 9.0 51 74 67.8 56.6 30.002 7.14 0.0 0 0.00 0.00 0.00 0.00
05/04/26 12:14:22 AM 37 3.0 9.0 51 74 67.9 56.6 30.001 7.14 0.0 0 0.00 0.00 0.00 0.00
05/04/26 12:15:34 AM 35 9.0 11.0 51 75 67.9 56.6 29.998 7.14 0.0 0 0.00 0.00 0.00 0.00
05/04/26 12:16:23 AM 34 5.0 11.0 51 75 67.9 56.6 29.995 7.14 0.0 0 0.00 0.00 0.00 0.00
05/04/26 12:17:32 AM 38 6.0 11.0 51 75 67.8 56.5 29.995 7.14 0.0 0 0.00 0.00 0.00 0.00
05/04/26 12:18:24 AM 35 3.0 11.0 51 75 67.9 56.5 29.995 7.14 0.0 0 0.00 0.00 0.00 0.00
05/04/26 12:19:16 AM 36 4.0 11.0 51 75 67.9 56.5 29.997 7.14 0.0 0 0.00 0.00 0.00 0.00
05/04/26 12:20:28 AM 34 4.0 11.0 51 75 67.9 56.5 29.996 7.14 0.0 0 0.00 0.00 0.00 0.00
05/04/26 12:21:20 AM 38 3.0 11.0 51 75 67.9 56.5 29.998 7.14 0.0 0 0.00 0.00 0.00 0.00
05/04/26 12:22:30 AM 38 1.0 11.0 51 75 67.9 56.5 29.996 7.14 0.0 0 0.00 0.00 0.00 0.00
05/04/26 12:23:21 AM 36 2.0 11.0 51 75 67.9 56.4 29.994 7.14 0.0 0 0.00 0.00 0.00 0.00
05/04/26 12:24:31 AM 38 2.0 11.0 51 75 67.9 56.4 29.995 7.14 0.0 0 0.00 0.00 0.00 0.00
05/04/26 12:25:26 AM 36 3.0 11.0 51 75 67.9 56.4 29.994 7.14 0.0 0 0.00 0.00 0.00 0.00
05/04/26 12:26:17 AM 35 2.0 11.0 51 75 67.9 56.4 29.997 7.14 0.0 0 0.00 0.00 0.00 0.00
05/04/26 12:27:24 AM 32 5.0 11.0 51 75 67.9 56.4 30.000 7.14 0.0 0 0.00 0.00 0.00 0.00
05/04/26 12:28:16 AM 36 3.0 11.0 51 75 67.9 56.4 30.002 7.14 0.0 0 0.00 0.00 0.00 0.00
05/04/26 12:29:28 AM 38 1.0 11.0 51 75 67.9 56.4 30.007 7.14 0.0 0 0.00 0.00 0.00 0.00
05/04/26 12:30:20 AM 36 2.0 11.0 51 75 67.9 56.4 30.009 7.14 0.0 0 0.00 0.00 0.00 0.00
05/04/26 12:31:30 AM 32 2.0 11.0 51 75 67.9 56.4 30.006 7.14 0.0 0 0.00 0.00 0.00 0.00
05/04/26 12:32:18 AM 34 3.0 11.0 51 75 67.9 56.4 30.008 7.14 0.0 0 0.00 0.00 0.00 0.00
05/04/26 12:33:31 AM 38 9.0 11.0 51 75 67.9 56.4 30.007 7.14 0.0 0 0.00 0.00 0.00 0.00
05/04/26 12:34:20 AM 35 6.0 11.0 51 75 67.9 56.4 30.008 7.14 0.0 0 0.00 0.00 0.00 0.00
05/04/26 12:35:33 AM 36 4.0 11.0 51 75 67.9 56.4 30.008 7.14 0.0 0 0.00 0.00 0.00 0.00
05/04/26 12:36:24 AM 34 2.0 11.0 51 76 68.0 56.4 30.012 7.14 0.0 0 0.00 0.00 0.00 0.00
05/04/26 12:37:16 AM 36 3.0 11.0 51 76 67.9 56.4 30.010 7.14 0.0 0 0.00 0.00 0.00 0.00
05/04/26 12:38:25 AM 36 3.0 11.0 51 76 68.0 56.4 30.012 7.14 0.0 0 0.00 0.00 0.00 0.00
05/04/26 12:39:17 AM 32 3.0 11.0 51 76 68.0 56.4 30.010 7.14 0.0 0 0.00 0.00 0.00 0.00
05/04/26 12:40:30 AM 38 2.0 11.0 51 76 68.0 56.4 30.006 7.14 0.0 0 0.00 0.00 0.00 0.00
05/04/26 12:41:25 AM 38 2.0 11.0 51 76 68.0 56.3 30.008 7.14 0.0 0 0.00 0.00 0.00 0.00
05/04/26 12:42:37 AM 35 5.0 11.0 51 76 68.0 56.3 30.011 7.14 0.0 0 0.00 0.00 0.00 0.00
05/04/26 12:43:26 AM 37 5.0 11.0 51 76 68.0 56.3 30.016 7.14 0.0 0 0.00 0.00 0.00 0.00
05/04/26 12:44:17 AM 38 7.0 11.0 51 76 68.1 56.3 30.020 7.14 0.0 0 0.00 0.00 0.00 0.00
05/04/26 12:45:30 AM 38 4.0 11.0 51 76 68.0 56.3 30.024 7.14 0.0 0 0.00 0.00 0.00 0.00
05/04/26 12:46:22 AM 36 7.0 11.0 51 76 68.0 56.3 30.024 7.14 0.0 0 0.00 0.00 0.00 0.00
05/04/26 12:47:35 AM 38 7.0 11.0 51 76 68.0 56.3 30.021 7.14 0.0 0 0.00 0.00 0.00 0.00
05/04/26 12:48:20 AM 32 4.0 11.0 51 76 68.0 56.3 30.016 7.14 0.0 0 0.00 0.00 0.00 0.00
05/04/26 12:49:33 AM 38 6.0 11.0 51 76 68.0 56.3 30.014 7.14 0.0 0 0.00 0.00 0.00 0.00
05/04/26 12:50:25 AM 39 6.0 11.0 51 76 68.1 56.2 30.013 7.14 0.0 0 0.00 0.00 0.00 0.00
05/04/26 12:51:16 AM 30 3.0 11.0 51 76 68.0 56.2 30.013 7.14 0.0 0 0.00 0.00 0.00 0.00
05/04/26 12:52:29 AM 39 6.0 11.0 51 76 68.0 56.2 30.014 7.14 0.0 0 0.00 0.00 0.00 0.00
05/04/26 12:53:21 AM 38 4.0 11.0 51 76 68.1 56.1 30.016 7.14 0.0 0 0.00 0.00 0.00 0.00
05/04/26 12:54:27 AM 36 5.0 11.0 51 76 68.0 56.1 30.013 7.14 0.0 0 0.00 0.00 0.00 0.00
05/04/26 12:55:19 AM 38 4.0 11.0 51 76 68.1 56.1 30.008 7.14 0.0 0 0.00 0.00 0.00 0.00
05/04/26 12:56:32 AM 35 5.0 11.0 51 76 68.1 56.0 30.007 7.14 0.0 0 0.00 0.00 0.00 0.00
05/04/26 12:57:26 AM 39 3.0 11.0 51 76 68.0 56.0 30.003 7.14 0.0 0 0.00 0.00 0.00 0.00
05/04/26 12:58:18 AM 36 4.0 11.0 51 76 68.1 56.0 30.001 7.14 0.0 0 0.00 0.00 0.00 0.00
05/04/26 12:59:28 AM 36 4.0 11.0 51 76 68.0 56.0 30.001 7.14 0.0 0 0.00 0.00 0.00 0.00
05/04/26 1:00:19 AM 34 3.0 11.0 51 76 68.0 56.0 30.002 7.14 0.0 0 0.00 0.00 0.00 0.00
05/04/26 1:01:32 AM 38 4.0 11.0 51 76 68.1 56.0 30.006 7.14 0.0 0 0.00 0.00 0.00 0.00
05/04/26 1:02:24 AM 37 4.0 11.0 51 76 68.1 56.0 30.004 7.14 0.0 0 0.00 0.00 0.00 0.00
05/04/26 1:03:36 AM 35 7.0 11.0 51 76 68.1 55.9 30.002 7.14 0.0 0 0.00 0.00 0.00 0.00
05/04/26 1:04:22 AM 38 5.0 11.0 51 76 68.1 55.9 30.000 7.14 0.0 0 0.00 0.00 0.00 0.00
05/04/26 1:05:35 AM 32 3.0 11.0 51 76 68.1 55.9 29.998 7.14 0.0 0 0.00 0.00 0.00 0.00
05/04/26 1:06:27 AM 32 6.0 11.0 51 76 68.0 55.9 29.997 7.14 0.0 0 0.00 0.00 0.00 0.00
05/04/26 1:07:21 AM 37 4.0 11.0 51 76 68.1 55.8 29.995 7.14 0.0 0 0.00 0.00 0.00 0.00
05/04/26 1:08:31 AM 34 6.0 11.0 51 76 68.1 55.8 29.998 7.14 0.0 0 0.00 0.00 0.00 0.00
05/04/26 1:09:23 AM 38 5.0 11.0 51 76 68.1 55.8 30.000 7.14 0.0 0 0.00 0.00 0.00 0.00
05/04/26 1:10:32 AM 36 7.0 11.0 51 76 68.1 55.8 30.003 7.14 0.0 0 0.00 0.00 0.00 0.00
05/04/26 1:11:24 AM 34 5.0 11.0 51 76 68.1 55.8 30.004 7.14 0.0 0 0.00 0.00 0.00 0.00
05/04/26 1:12:37 AM 38 3.0 11.0 51 76 68.1 55.7 30.004 7.14 0.0 0 0.00 0.00 0.00 0.00
05/04/26 1:13:28 AM 38 7.0 11.0 51 76 68.1 55.7 30.006 7.14 0.0 0 0.00 0.00 0.00 0.00
05/04/26 1:14:20 AM 38 6.0 11.0 51 76 68.1 55.7 30.006 7.14 0.0 0 0.00 0.00 0.00 0.00
05/04/26 1:15:30 AM 34 5.0 11.0 51 76 68.1 55.7 30.005 7.14 0.0 0 0.00 0.00 0.00 0.00
05/04/26 1:16:18 AM 35 5.0 11.0 51 76 68.1 55.7 30.007 7.14 0.0 0 0.00 0.00 0.00 0.00
05/04/26 1:17:31 AM 35 3.0 11.0 51 76 68.1 55.7 30.003 7.14 0.0 0 0.00 0.00 0.00 0.00
05/04/26 1:18:23 AM 32 2.0 11.0 51 76 68.1 55.7 29.999 7.14 0.0 0 0.00 0.00 0.00 0.00
05/04/26 1:19:36 AM 35 1.0 11.0 51 76 68.1 55.7 29.999 7.14 0.0 0 0.00 0.00 0.00 0.00
05/04/26 1:20:24 AM 35 3.0 11.0 51 76 68.1 55.7 29.997 7.14 0.0 0 0.00 0.00 0.00 0.00
05/04/26 1:21:16 AM 34 3.0 11.0 51 76 68.1 55.7 29.997 7.14 0.0 0 0.00 0.00 0.00 0.00
05/04/26 1:22:29 AM 36 3.0 11.0 51 76 68.1 55.7 29.998 7.14 0.0 0 0.00 0.00 0.00 0.00
05/04/26 1:23:20 AM 35 3.0 11.0 51 76 68.1 55.6 29.998 7.14 0.0 0 0.00 0.00 0.00 0.00
05/04/26 1:24:33 AM 36 4.0 11.0 51 76 68.1 55.7 29.999 7.14 0.0 0 0.00 0.00 0.00 0.00
05/04/26 1:25:25 AM 38 6.0 11.0 51 76 68.1 55.7 29.999 7.14 0.0 0 0.00 0.00 0.00 0.00
05/04/26 1:26:34 AM 38 4.0 11.0 51 76 68.1 55.6 29.998 7.14 0.0 0 0.00 0.00 0.00 0.00
05/04/26 1:27:26 AM 34 4.0 11.0 51 76 68.1 55.6 29.997 7.14 0.0 0 0.00 0.00 0.00 0.00
05/04/26 1:28:18 AM 38 3.0 11.0 51 76 68.1 55.6 29.997 7.14 0.0 0 0.00 0.00 0.00 0.00
05/04/26 1:29:31 AM 32 2.0 11.0 51 76 68.1 55.6 29.995 7.14 0.0 0 0.00 0.00 0.00 0.00
05/04/26 1:30:22 AM 32 3.0 11.0 51 76 68.1 55.6 29.995 7.14 0.0 0 0.00 0.00 0.00 0.00
05/04/26 1:31:32 AM 36 2.0 11.0 51 76 68.1 55.6 29.995 7.14 0.0 0 0.00 0.00 0.00 0.00
05/04/26 1:32:21 AM 35 6.0 11.0 51 76 68.1 55.6 29.995 7.14 0.0 0 0.00 0.00 0.00 0.00
05/04/26 1:33:33 AM 37 4.0 11.0 51 76 68.1 55.6 29.998 7.14 0.0 0 0.00 0.00 0.00 0.00
05/04/26 1:34:28 AM 36 7.0 11.0 51 76 68.1 55.6 29.998 7.14 0.0 0 0.00 0.00 0.00 0.00
05/04/26 1:35:20 AM 34 6.0 11.0 51 76 68.1 55.6 29.998 7.14 0.0 0 0.00 0.00 0.00 0.00
05/04/26 1:36:27 AM 36 6.0 11.0 51 76 68.1 55.6 29.995 7.14 0.0 0 0.00 0.00 0.00 0.00
05/04/26 1:37:18 AM 36 4.0 11.0 51 76 68.1 55.6 29.990 7.14 0.0 0 0.00 0.00 0.00 0.00
05/04/26 1:38:31 AM 38 3.0 11.0 51 76 68.1 55.5 29.988 7.14 0.0 0 0.00 0.00 0.00 0.00
05/04/26 1:39:23 AM 35 3.0 11.0 51 76 68.1 55.5 29.988 7.14 0.0 0 0.00 0.00 0.00 0.00
05/04/26 1:40:36 AM 38 7.0 11.0 51 76 68.1 55.5 29.983 7.14 0.0 0 0.00 0.00 0.00 0.00
05/04/26 1:41:27 AM 38 5.0 11.0 51 76 68.1 55.5 29.982 7.14 0.0 0 0.00 0.00 0.00 0.00
05/04/26 1:42:34 AM 35 3.0 11.0 51 76 68.1 55.5 29.982 7.14 0.0 0 0.00 0.00 0.00 0.00
05/04/26 1:43:26 AM 38 3.0 11.0 51 76 68.2 55.5 29.987 7.14 0.0 0 0.00 0.00 0.00 0.00
05/04/26 1:44:20 AM 36 4.0 11.0 51 76 68.1 55.5 29.985 7.14 0.0 0 0.00 0.00 0.00 0.00
05/04/26 1:45:33 AM 36 6.0 11.0 51 76 68.1 55.4 29.984 7.14 0.0 0 0.00 0.00 0.00 0.00
05/04/26 1:46:25 AM 35 4.0 11.0 51 76 68.1 55.4 29.982 7.14 0.0 0 0.00 0.00 0.00 0.00
05/04/26 1:47:32 AM 35 3.0 11.0 51 76 68.1 55.4 29.983 7.14 0.0 0 0.00 0.00 0.00 0.00
05/04/26 1:48:23 AM 37 1.0 11.0 51 76 68.1 55.4 29.982 7.14 0.0 0 0.00 0.00 0.00 0.00
05/04/26 1:49:36 AM 36 3.0 11.0 51 76 68.1 55.4 29.985 7.14 0.0 0 0.00 0.00 0.00 0.00
05/04/26 1:50:28 AM 32 2.0 11.0 51 76 68.1 55.4 29.982 7.14 0.0 0 0.00 0.00 0.00 0.00
05/04/26 1:51:19 AM 34 4.0 11.0 51 76 68.2 55.4 29.983 7.14 0.0 0 0.00 0.00 0.00 0.00
05/04/26 1:52:29 AM 38 3.0 11.0 51 76 68.1 55.4 29.979 7.14 0.0 0 0.00 0.00 0.00 0.00
05/04/26 1:53:21 AM 38 2.0 11.0 51 76 68.2 55.4 29.977 7.14 0.0 0 0.00 0.00 0.00 0.00
05/04/26 1:54:34 AM 35 3.0 11.0 51 76 68.1 55.3 29.974 7.14 0.0 0 0.00 0.00 0.00 0.00
05/04/26 1:55:25 AM 36 2.0 11.0 51 76 68.1 55.3 29.977 7.14 0.0 0 0.00 0.00 0.00 0.00
05/04/26 1:56:20 AM 34 3.0 11.0 51 76 68.1 55.3 29.976 7.14 0.0 0 0.00 0.00 0.00 0.00
05/04/26 1:57:30 AM 37 3.0 11.0 51 76 68.1 55.3 29.978 7.14 0.0 0 0.00 0.00 0.00 0.00
05/04/26 1:58:18 AM 35 4.0 11.0 51 76 68.2 55.3 29.981 7.14 0.0 0 0.00 0.00 0.00 0.00
05/04/26 1:59:31 AM 35 4.0 11.0 51 76 68.1 55.3 29.983 7.14 0.0 0 0.00 0.00 0.00 0.00
05/04/26 2:00:26 AM 36 3.0 11.0 51 76 68.2 55.3 29.983 7.14 0.0 0 0.00 0.00 0.00 0.00
05/04/26 2:01:18 AM 37 4.0 11.0 51 76 68.1 55.3 29.985 7.14 0.0 0 0.00 0.00 0.00 0.00
05/04/26 2:02:30 AM 32 3.0 11.0 51 76 68.2 55.3 29.980 7.14 0.0 0 0.00 0.00 0.00 0.00
05/04/26 2:03:19 AM 34 4.0 11.0 51 76 68.2 55.3 29.978 7.14 0.0 0 0.00 0.00 0.00 0.00
05/04/26 2:04:32 AM 36 4.0 11.0 51 76 68.2 55.3 29.977 7.14 0.0 0 0.00 0.00 0.00 0.00
05/04/26 2:05:24 AM 32 3.0 11.0 51 76 68.2 55.3 29.976 7.14 0.0 0 0.00 0.00 0.00 0.00
05/04/26 2:06:36 AM 39 4.0 11.0 51 76 68.2 55.2 29.976 7.14 0.0 0 0.00 0.00 0.00 0.00
05/04/26 2:07:28 AM 30 5.0 11.0 51 76 68.2 55.2 29.974 7.14 0.0 0 0.00 0.00 0.00 0.00
05/04/26 2:08:47 AM 36 4.0 11.0 51 76 68.2 55.2 29.974 7.14 0.0 0 0.00 0.00 0.00 0.00
05/04/26 2:09:17 AM 38 5.0 11.0 51 76 68.2 55.2 29.976 7.14 0.0 0 0.00 0.00 0.00 0.00
05/04/26 2:10:30 AM 35 3.0 11.0 51 76 68.2 55.1 29.974 7.14 0.0 0 0.00 0.00 0.00 0.00
05/04/26 2:11:22 AM 35 3.0 11.0 51 76 68.1 55.1 29.976 7.14 0.0 0 0.00 0.00 0.00 0.00
05/04/26 2:12:35 AM 37 3.0 11.0 51 76 68.2 55.1 29.976 7.14 0.0 0 0.00 0.00 0.00 0.00
05/04/26 2:13:26 AM 34 3.0 11.0 51 76 68.2 55.1 29.974 7.14 0.0 0 0.00 0.00 0.00 0.00
05/04/26 2:14:33 AM 36 3.0 11.0 51 76 68.2 55.1 29.977 7.14 0.0 0 0.00 0.00 0.00 0.00
05/04/26 2:15:25 AM 35 3.0 11.0 51 76 68.2 55.0 29.977 7.14 0.0 0 0.00 0.00 0.00 0.00
05/04/26 2:16:16 AM 36 2.0 11.0 51 76 68.1 55.0 29.973 7.14 0.0 0 0.00 0.00 0.00 0.00
05/04/26 2:17:29 AM 36 2.0 11.0 51 76 68.2 55.0 29.976 7.14 0.0 0 0.00 0.00 0.00 0.00
05/04/26 2:18:21 AM 36 3.0 11.0 51 76 68.2 55.0 29.975 7.14 0.0 0 0.00 0.00 0.00 0.00
05/04/26 2:19:28 AM 35 3.0 11.0 51 76 68.1 55.0 29.976 7.14 0.0 0 0.00 0.00 0.00 0.00
05/04/26 2:20:19 AM 34 1.0 11.0 51 76 68.2 54.9 29.975 7.14 0.0 0 0.00 0.00 0.00 0.00
05/04/26 2:21:32 AM 32 3.0 11.0 51 76 68.2 54.9 29.977 7.14 0.0 0 0.00 0.00 0.00 0.00
05/04/26 2:22:24 AM 38 2.0 11.0 51 76 68.2 54.9 29.977 7.14 0.0 0 0.00 0.00 0.00 0.00
05/04/26 2:23:37 AM 34 2.0 11.0 51 76 68.2 54.9 29.978 7.14 0.0 0 0.00 0.00 0.00 0.00
05/04/26 2:24:25 AM 36 2.0 11.0 51 76 68.1 54.9 29.976 7.14 0.0 0 0.00 0.00 0.00 0.00
05/04/26 2:25:35 AM 36 3.0 11.0 51 76 68.2 54.9 29.974 7.14 0.0 0 0.00 0.00 0.00 0.00
05/04/26 2:26:27 AM 36 3.0 11.0 51 76 68.2 54.8 29.976 7.14 0.0 0 0.00 0.00 0.00 0.00
05/04/26 2:27:22 AM 36 3.0 11.0 51 76 68.1 54.8 29.976 7.14 0.0 0 0.00 0.00 0.00 0.00
05/04/26 2:28:32 AM 38 3.0 11.0 51 76 68.2 54.8 29.974 7.14 0.0 0 0.00 0.00 0.00 0.00
05/04/26 2:29:23 AM 36 3.0 11.0 51 77 68.2 54.9 29.974 7.14 0.0 0 0.00 0.00 0.00 0.00
05/04/26 2:30:33 AM 35 2.0 11.0 51 77 68.1 54.8 29.973 7.14 0.0 0 0.00 0.00 0.00 0.00
05/04/26 2:31:25 AM 38 2.0 11.0 51 77 68.1 54.8 29.971 7.14 0.0 0 0.00 0.00 0.00 0.00
05/04/26 2:32:35 AM 36 1.0 11.0 51 77 68.2 54.8 29.971 7.14 0.0 0 0.00 0.00 0.00 0.00
05/04/26 2:33:26 AM 38 1.0 11.0 51 77 68.1 54.8 29.970 7.14 0.0 0 0.00 0.00 0.00 0.00
05/04/26 2:34:21 AM 34 2.0 11.0 51 77 68.1 54.8 29.970 7.14 0.0 0 0.00 0.00 0.00 0.00
05/04/26 2:35:28 AM 38 2.0 11.0 51 77 68.1 54.8 29.969 7.14 0.0 0 0.00 0.00 0.00 0.00
05/04/26 2:36:19 AM 38 2.0 11.0 51 77 68.1 54.8 29.970 7.14 0.0 0 0.00 0.00 0.00 0.00
05/04/26 2:37:32 AM 36 3.0 11.0 51 77 68.2 54.8 29.968 7.14 0.0 0 0.00 0.00 0.00 0.00
05/04/26 2:38:24 AM 36 1.0 11.0 51 77 68.1 54.8 29.969 7.14 0.0 0 0.00 0.00 0.00 0.00
05/04/26 2:39:34 AM 37 2.0 11.0 51 77 68.1 54.8 29.972 7.14 0.0 0 0.00 0.00 0.00 0.00
05/04/26 2:40:28 AM 36 4.0 11.0 51 77 68.1 54.8 29.971 7.14 0.0 0 0.00 0.00 0.00 0.00
05/04/26 2:41:35 AM 34 3.0 11.0 51 77 68.1 54.8 29.970 7.14 0.0 0 0.00 0.00 0.00 0.00
05/04/26 2:42:30 AM 35 2.0 11.0 51 77 68.1 54.8 29.970 7.14 0.0 0 0.00 0.00 0.00 0.00
05/04/26 2:43:19 AM 38 3.0 11.0 51 77 68.1 54.8 29.970 7.14 0.0 0 0.00 0.00 0.00 0.00
05/04/26 2:44:32 AM 35 2.0 11.0 51 77 68.1 54.7 29.972 7.14 0.0 0 0.00 0.00 0.00 0.00
05/04/26 2:45:47 AM 32 2.0 11.0 51 77 68.1 54.7 29.972 7.14 0.0 0 0.00 0.00 0.00 0.00
05/04/26 2:46:18 AM 32 1.0 11.0 51 77 68.1 54.8 29.970 7.14 0.0 0 0.00 0.00 0.00 0.00
05/04/26 2:47:25 AM 38 1.0 11.0 51 77 68.1 54.7 29.972 7.14 0.0 0 0.00 0.00 0.00 0.00
05/04/26 2:48:19 AM 37 3.0 11.0 51 77 68.1 54.7 29.972 7.14 0.0 0 0.00 0.00 0.00 0.00
05/04/26 2:49:32 AM 36 1.0 11.0 51 77 68.1 54.7 29.972 7.14 0.0 0 0.00 0.00 0.00 0.00
05/04/26 2:50:24 AM 36 2.0 11.0 51 77 68.1 54.7 29.972 7.14 0.0 0 0.00 0.00 0.00 0.00
05/04/26 2:51:37 AM 36 0.0 11.0 51 77 68.1 54.7 29.972 7.14 0.0 0 0.00 0.00 0.00 0.00
05/04/26 2:52:25 AM 32 0.0 11.0 51 77 68.1 54.7 29.969 7.14 0.0 0 0.00 0.00 0.00 0.00
05/04/26 2:53:35 AM 34 0.0 11.0 51 77 68.1 54.7 29.970 7.14 0.0 0 0.00 0.00 0.00 0.00
05/04/26 2:54:27 AM 38 0.0 11.0 51 77 68.1 54.6 29.969 7.14 0.0 0 0.00 0.00 0.00 0.00
05/04/26 2:55:19 AM 37 0.0 11.0 51 77 68.1 54.7 29.967 7.14 0.0 0 0.00 0.00 0.00 0.00
05/04/26 2:56:31 AM 36 0.0 11.0 51 77 68.1 54.6 29.967 7.14 0.0 0 0.00 0.00 0.00 0.00
05/04/26 2:57:17 AM 37 0.0 11.0 51 77 68.1 54.6 29.963 7.14 0.0 0 0.00 0.00 0.00 0.00
05/04/26 2:58:30 AM 36 0.0 11.0 51 77 68.1 54.7 29.963 7.14 0.0 0 0.00 0.00 0.00 0.00
05/04/26 2:59:21 AM 38 0.0 11.0 51 77 68.1 54.6 29.968 7.14 0.0 0 0.00 0.00 0.00 0.00
05/04/26 3:00:55 AM 34 1.0 11.0 51 77 68.1 54.6 29.968 7.14 0.0 0 0.00 0.00 0.00 0.00
05/04/26 3:01:26 AM 38 0.0 11.0 51 77 68.1 54.6 29.966 7.14 0.0 0 0.00 0.00 0.00 0.00
05/04/26 3:02:18 AM 38 1.0 11.0 51 77 68.1 54.6 29.968 7.14 0.0 0 0.00 0.00 0.00 0.00
05/04/26 3:03:25 AM 37 0.0 11.0 51 77 68.1 54.6 29.967 7.14 0.0 0 0.00 0.00 0.00 0.00
05/04/26 3:04:19 AM 38 1.0 11.0 51 77 68.1 54.6 29.966 7.14 0.0 0 0.00 0.00 0.00 0.00
05/04/26 3:05:32 AM 35 0.0 11.0 51 77 68.1 54.6 29.967 7.14 0.0 0 0.00 0.00 0.00 0.00
05/04/26 3:06:24 AM 35 0.0 11.0 51 77 68.1 54.6 29.966 7.14 0.0 0 0.00 0.00 0.00 0.00
05/04/26 3:07:37 AM 38 0.0 11.0 51 77 68.1 54.6 29.966 7.14 0.0 0 0.00 0.00 0.00 0.00
05/04/26 3:08:22 AM 30 0.0 11.0 51 77 68.1 54.6 29.967 7.14 0.0 0 0.00 0.00 0.00 0.00
05/04/26 3:09:35 AM 31 0.0 11.0 51 77 68.1 54.6 29.964 7.14 0.0 0 0.00 0.00 0.00 0.00
05/04/26 3:10:27 AM 36 0.0 11.0 51 77 68.1 54.6 29.968 7.14 0.0 0 0.00 0.00 0.00 0.00
05/04/26 3:11:22 AM 38 0.0 11.0 51 77 68.1 54.6 29.966 7.14 0.0 0 0.00 0.00 0.00 0.00
05/04/26 3:12:31 AM 38 1.0 11.0 51 77 68.1 54.6 29.964 7.14 0.0 0 0.00 0.00 0.00 0.00
05/04/26 3:13:23 AM 37 2.0 11.0 51 77 68.1 54.6 29.964 7.14 0.0 0 0.00 0.00 0.00 0.00
05/04/26 3:14:30 AM 36 3.0 11.0 51 77 68.1 54.6 29.966 7.14 0.0 0 0.00 0.00 0.00 0.00
05/04/26 3:15:25 AM 37 3.0 11.0 51 77 68.1 54.6 29.967 7.14 0.0 0 0.00 0.00 0.00 0.00
05/04/26 3:16:34 AM 37 3.0 11.0 51 77 68.1 54.6 29.970 7.14 0.0 0 0.00 0.00 0.00 0.00
05/04/26 3:17:26 AM 37 2.0 11.0 51 77 68.1 54.6 29.967 7.14 0.0 0 0.00 0.00 0.00 0.00
05/04/26 3:18:18 AM 37 3.0 11.0 51 77 68.0 54.6 29.966 7.14 0.0 0 0.00 0.00 0.00 0.00
05/04/26 3:19:25 AM 36 2.0 11.0 51 77 68.0 54.6 29.967 7.14 0.0 0 0.00 0.00 0.00 0.00
05/04/26 3:20:19 AM 36 3.0 11.0 51 77 68.0 54.6 29.965 7.14 0.0 0 0.00 0.00 0.00 0.00
05/04/26 3:21:29 AM 35 3.0 11.0 51 77 68.0 54.6 29.966 7.14 0.0 0 0.00 0.00 0.00 0.00
05/04/26 3:22:21 AM 36 2.0 11.0 51 77 68.0 54.6 29.966 7.14 0.0 0 0.00 0.00 0.00 0.00
05/04/26 3:23:34 AM 37 1.0 11.0 51 77 68.0 54.6 29.966 7.14 0.0 0 0.00 0.00 0.00 0.00
05/04/26 3:24:23 AM 38 1.0 11.0 51 77 67.9 54.6 29.969 7.14 0.0 0 0.00 0.00 0.00 0.00
05/04/26 3:25:32 AM 35 1.0 11.0 51 77 68.0 54.6 29.968 7.14 0.0 0 0.00 0.00 0.00 0.00
05/04/26 3:26:27 AM 36 1.0 11.0 51 77 67.9 54.6 29.968 7.14 0.0 0 0.00 0.00 0.00 0.00
05/04/26 3:27:16 AM 35 2.0 11.0 51 77 67.9 54.6 29.968 7.14 0.0 0 0.00 0.00 0.00 0.00
05/04/26 3:28:29 AM 38 2.0 11.0 51 77 67.9 54.6 29.967 7.14 0.0 0 0.00 0.00 0.00 0.00
05/04/26 3:29:20 AM 32 2.0 11.0 51 77 67.9 54.6 29.963 7.14 0.0 0 0.00 0.00 0.00 0.00
05/04/26 3:30:30 AM 38 2.0 11.0 51 77 67.9 54.6 29.960 7.14 0.0 0 0.00 0.00 0.00 0.00
05/04/26 3:31:19 AM 35 2.0 11.0 51 77 68.0 54.6 29.961 7.14 0.0 0 0.00 0.00 0.00 0.00
05/04/26 3:32:32 AM 38 1.0 11.0 51 77 67.9 54.5 29.962 7.14 0.0 0 0.00 0.00 0.00 0.00
05/04/26 3:33:23 AM 37 1.0 11.0 51 77 68.0 54.6 29.963 7.14 0.0 0 0.00 0.00 0.00 0.00
05/04/26 3:34:36 AM 37 0.0 11.0 51 77 68.0 54.6 29.967 7.14 0.0 0 0.00 0.00 0.00 0.00
05/04/26 3:35:22 AM 38 0.0 11.0 51 77 68.0 54.6 29.969 7.14 0.0 0 0.00 0.00 0.00 0.00
05/04/26 3:36:35 AM 35 0.0 11.0 51 77 68.0 54.6 29.970 7.14 0.0 0 0.00 0.00 0.00 0.00
05/04/26 3:37:27 AM 40 0.0 11.0 51 77 67.9 54.6 29.971 7.14 0.0 0 0.00 0.00 0.00 0.00
05/04/26 3:38:18 AM 31 0.0 11.0 51 77 67.9 54.6 29.968 7.14 0.0 0 0.00 0.00 0.00 0.00
05/04/26 3:39:31 AM 34 0.0 11.0 51 77 68.0 54.6 29.968 7.14 0.0 0 0.00 0.00 0.00 0.00
05/04/26 3:40:20 AM 37 0.0 11.0 51 77 68.0 54.6 29.967 7.14 0.0 0 0.00 0.00 0.00 0.00
05/04/26 3:41:33 AM 34 0.0 11.0 51 77 68.1 54.6 29.966 7.14 0.0 0 0.00 0.00 0.00 0.00
05/04/26 3:42:24 AM 38 0.0 11.0 51 77 68.0 54.6 29.968 7.14 0.0 0 0.00 0.00 0.00 0.00
05/04/26 3:43:34 AM 34 0.0 11.0 51 77 68.0 54.5 29.965 7.14 0.0 0 0.00 0.00 0.00 0.00
05/04/26 3:44:29 AM 38 0.0 11.0 51 77 68.0 54.6 29.967 7.14 0.0 0 0.00 0.00 0.00 0.00
05/04/26 3:45:42 AM 37 0.0 11.0 51 77 68.0 54.6 29.969 7.14 0.0 0 0.00 0.00 0.00 0.00
05/04/26 3:46:28 AM 32 0.0 11.0 51 77 68.0 54.6 29.970 7.14 0.0 0 0.00 0.00 0.00 0.00
05/04/26 3:47:19 AM 38 0.0 11.0 51 77 68.0 54.6 29.969 7.14 0.0 0 0.00 0.00 0.00 0.00
05/04/26 3:48:32 AM 32 0.0 11.0 51 77 68.0 54.6 29.968 7.14 0.0 0 0.00 0.00 0.00 0.00
05/04/26 3:49:24 AM 39 1.0 11.0 51 77 68.0 54.6 29.965 7.14 0.0 0 0.00 0.00 0.00 0.00
05/04/26 3:50:16 AM 31 2.0 11.0 51 77 68.0 54.6 29.961 7.14 0.0 0 0.00 0.00 0.00 0.00
05/04/26 3:51:26 AM 30 2.0 11.0 51 77 68.0 54.6 29.962 7.14 0.0 0 0.00 0.00 0.00 0.00
05/04/26 3:52:17 AM 37 1.0 11.0 51 77 68.0 54.6 29.965 7.14 0.0 0 0.00 0.00 0.00 0.00
05/04/26 3:53:27 AM 34 0.0 11.0 51 77 68.0 54.6 29.968 7.14 0.0 0 0.00 0.00 0.00 0.00
05/04/26 3:54:22 AM 37 1.0 11.0 51 77 68.0 54.6 29.968 7.14 0.0 0 0.00 0.00 0.00 0.00
05/04/26 3:55:32 AM 34 1.0 11.0 51 77 68.0 54.6 29.966 7.14 0.0 0 0.00 0.00 0.00 0.00
05/04/26 3:56:27 AM 38 2.0 11.0 51 77 67.9 54.6 29.964 7.14 0.0 0 0.00 0.00 0.00 0.00
05/04/26 3:57:34 AM 36 2.0 11.0 51 77 67.9 54.6 29.965 7.14 0.0 0 0.00 0.00 0.00 0.00
05/04/26 3:58:25 AM 37 2.0 11.0 51 77 68.0 54.6 29.967 7.14 0.0 0 0.00 0.00 0.00 0.00
05/04/26 3:59:20 AM 34 2.0 11.0 51 77 68.0 54.6 29.965 7.14 0.0 0 0.00 0.00 0.00 0.00
05/04/26 4:00:51 AM 36 4.0 11.0 51 77 68.0 54.5 29.967 7.14 0.0 0 0.00 0.00 0.00 0.00
05/04/26 4:01:22 AM 39 3.0 11.0 51 77 68.0 54.5 29.971 7.14 0.0 0 0.00 0.00 0.00 0.00
05/04/26 4:02:29 AM 38 3.0 11.0 51 77 68.0 54.6 29.971 7.14 0.0 0 0.00 0.00 0.00 0.00
05/04/26 4:03:23 AM 32 4.0 11.0 51 77 68.0 54.5 29.973 7.14 0.0 0 0.00 0.00 0.00 0.00
05/04/26 4:04:33 AM 35 3.0 11.0 51 77 68.0 54.5 29.974 7.14 0.0 0 0.00 0.00 0.00 0.00
05/04/26 4:05:25 AM 34 3.0 11.0 51 77 68.0 54.5 29.975 7.14 0.0 0 0.00 0.00 0.00 0.00
05/04/26 4:06:20 AM 39 3.0 11.0 51 77 68.0 54.5 29.975 7.14 0.0 0 0.00 0.00 0.00 0.00
05/04/26 4:07:32 AM 35 3.0 11.0 51 77 68.0 54.5 29.971 7.14 0.0 0 0.00 0.00 0.00 0.00
05/04/26 4:08:21 AM 38 4.0 11.0 51 77 68.0 54.5 29.971 7.14 0.0 0 0.00 0.00 0.00 0.00
05/04/26 4:09:22 AM 38 3.0 11.0 51 77 68.0 54.5 29.970 7.14 0.0 0 0.00 0.00 0.00 0.00
05/04/26 4:10:35 AM 35 2.0 11.0 51 77 68.0 54.5 29.968 7.14 0.0 0 0.00 0.00 0.00 0.00
05/04/26 4:11:27 AM 32 2.0 11.0 51 77 68.0 54.5 29.969 7.14 0.0 0 0.00 0.00 0.00 0.00
05/04/26 4:12:19 AM 35 2.0 11.0 51 77 68.0 54.5 29.968 7.14 0.0 0 0.00 0.00 0.00 0.00
05/04/26 4:13:28 AM 36 3.0 11.0 51 77 68.1 54.5 29.969 7.14 0.0 0 0.00 0.00 0.00 0.00
05/04/26 4:14:20 AM 36 3.0 11.0 51 77 68.0 54.5 29.972 7.14 0.0 0 0.00 0.00 0.00 0.00
05/04/26 4:15:54 AM 36 3.0 11.0 51 77 68.0 54.4 29.972 7.14 0.0 0 0.00 0.00 0.00 0.00
05/04/26 4:16:25 AM 36 3.0 11.0 51 77 68.0 54.4 29.972 7.14 0.0 0 0.00 0.00 0.00 0.00
05/04/26 4:17:35 AM 32 2.0 11.0 51 77 68.0 54.4 29.970 7.14 0.0 0 0.00 0.00 0.00 0.00
05/04/26 4:18:30 AM 36 2.0 11.0 51 77 68.1 54.4 29.968 7.14 0.0 0 0.00 0.00 0.00 0.00
05/04/26 4:19:36 AM 34 2.0 11.0 51 77 68.0 54.4 29.969 7.14 0.0 0 0.00 0.00 0.00 0.00
05/04/26 4:20:28 AM 35 2.0 11.0 51 77 68.0 54.4 29.968 7.14 0.0 0 0.00 0.00 0.00 0.00
05/04/26 4:21:23 AM 37 2.0 11.0 51 77 68.0 54.4 29.971 7.14 0.0 0 0.00 0.00 0.00 0.00
05/04/26 4:22:33 AM 35 1.0 11.0 51 77 68.0 54.4 29.970 7.14 0.0 0 0.00 0.00 0.00 0.00
05/04/26 4:23:25 AM 32 3.0 11.0 51 77 68.0 54.4 29.970 7.14 0.0 0 0.00 0.00 0.00 0.00
05/04/26 4:24:31 AM 35 1.0 11.0 51 77 68.0 54.4 29.970 7.14 0.0 0 0.00 0.00 0.00 0.00
05/04/26 4:25:23 AM 39 1.0 11.0 51 77 68.0 54.4 29.972 7.14 0.0 0 0.00 0.00 0.00 0.00
05/04/26 4:26:36 AM 36 3.0 11.0 51 77 68.1 54.4 29.972 7.14 0.0 0 0.00 0.00 0.00 0.00
05/04/26 4:27:28 AM 38 2.0 11.0 51 77 68.0 54.4 29.970 7.14 0.0 0 0.00 0.00 0.00 0.00
05/04/26 4:28:19 AM 37 1.0 11.0 51 77 68.1 54.4 29.972 7.14 0.0 0 0.00 0.00 0.00 0.00
05/04/26 4:29:32 AM 38 2.0 11.0 51 77 68.1 54.4 29.970 7.14 0.0 0 0.00 0.00 0.00 0.00
05/04/26 4:30:45 AM 38 1.0 11.0 51 77 68.0 54.4 29.970 7.14 0.0 0 0.00 0.00 0.00 0.00
05/04/26 4:31:34 AM 35 1.0 11.0 51 77 68.0 54.4 29.971 7.14 0.0 0 0.00 0.00 0.00 0.00
05/04/26 4:32:26 AM 36 0.0 11.0 51 77 68.0 54.4 29.973 7.14 0.0 0 0.00 0.00 0.00 0.00
05/04/26 4:33:17 AM 38 0.0 11.0 51 77 68.0 54.4 29.972 7.14 0.0 0 0.00 0.00 0.00 0.00
05/04/26 4:34:30 AM 36 0.0 11.0 51 77 68.1 54.4 29.973 7.14 0.0 0 0.00 0.00 0.00 0.00
05/04/26 4:35:22 AM 31 0.0 11.0 51 77 68.0 54.4 29.970 7.14 0.0 0 0.00 0.00 0.00 0.00
05/04/26 4:36:32 AM 36 0.0 11.0 51 77 68.1 54.4 29.969 7.14 0.0 0 0.00 0.00 0.00 0.00
05/04/26 4:37:24 AM 38 0.0 11.0 51 77 68.0 54.4 29.968 7.14 0.0 0 0.00 0.00 0.00 0.00
05/04/26 4:38:37 AM 38 0.0 11.0 51 77 68.0 54.4 29.969 7.14 0.0 0 0.00 0.00 0.00 0.00
05/04/26 4:39:28 AM 35 0.0 11.0 51 77 68.1 54.4 29.970 7.14 0.0 0 0.00 0.00 0.00 0.00
05/04/26 4:40:20 AM 36 0.0 11.0 51 77 68.0 54.4 29.967 7.14 0.0 0 0.00 0.00 0.00 0.00
05/04/26 4:41:27 AM 38 0.0 11.0 51 77 68.1 54.4 29.970 7.14 0.0 0 0.00 0.00 0.00 0.00
05/04/26 4:42:19 AM 38 0.0 11.0 51 77 68.1 54.4 29.970 7.14 0.0 0 0.00 0.00 0.00 0.00
05/04/26 4:43:29 AM 35 0.0 11.0 51 77 68.1 54.4 29.969 7.14 0.0 0 0.00 0.00 0.00 0.00
05/04/26 4:44:21 AM 39 0.0 11.0 51 77 68.1 54.4 29.970 7.14 0.0 0 0.00 0.00 0.00 0.00
05/04/26 4:45:36 AM 32 0.0 11.0 51 77 68.0 54.4 29.973 7.14 0.0 0 0.00 0.00 0.00 0.00
05/04/26 4:46:22 AM 31 0.0 11.0 51 77 68.0 54.4 29.975 7.14 0.0 0 0.00 0.00 0.00 0.00
05/04/26 4:47:35 AM 31 0.0 11.0 51 78 68.0 54.4 29.976 7.14 0.0 0 0.00 0.00 0.00 0.00
05/04/26 4:48:27 AM 35 0.0 11.0 51 78 68.0 54.3 29.976 7.14 0.0 0 0.00 0.00 0.00 0.00
05/04/26 4:49:19 AM 38 0.0 11.0 51 78 68.1 54.3 29.976 7.14 0.0 0 0.00 0.00 0.00 0.00
05/04/26 4:50:32 AM 38 0.0 11.0 51 78 68.0 54.3 29.974 7.14 0.0 0 0.00 0.00 0.00 0.00
05/04/26 4:51:23 AM 36 0.0 11.0 51 78 68.1 54.3 29.973 7.14 0.0 0 0.00 0.00 0.00 0.00
05/04/26 4:52:30 AM 36 3.0 11.0 51 78 68.1 54.3 29.972 7.14 0.0 0 0.00 0.00 0.00 0.00
05/04/26 4:53:22 AM 32 3.0 11.0 51 78 68.0 54.3 29.971 7.14 0.0 0 0.00 0.00 0.00 0.00
05/04/26 4:54:35 AM 34 3.0 11.0 51 78 68.1 54.3 29.970 7.14 0.0 0 0.00 0.00 0.00 0.00
05/04/26 4:55:24 AM 34 2.0 11.0 51 78 68.0 54.3 29.971 7.14 0.0 0 0.00 0.00 0.00 0.00
05/04/26 4:56:36 AM 36 2.0 11.0 51 78 68.1 54.3 29.974 7.14 0.0 0 0.00 0.00 0.00 0.00
05/04/26 4:57:22 AM 37 3.0 11.0 51 78 68.1 54.3 29.972 7.14 0.0 0 0.00 0.00 0.00 0.00
05/04/26 4:58:35 AM 35 2.0 11.0 51 78 68.1 54.3 29.975 7.14 0.0 0 0.00 0.00 0.00 0.00
05/04/26 4:59:27 AM 36 3.0 11.0 51 78 68.0 54.3 29.976 7.14 0.0 0 0.00 0.00 0.00 0.00
05/04/26 5:00:40 AM 35 2.0 11.0 51 78 68.1 54.3 29.976 7.14 0.0 0 0.00 0.00 0.00 0.00
05/04/26 5:01:31 AM 36 2.0 11.0 51 78 68.1 54.3 29.978 7.14 0.0 0 0.00 0.00 0.00 0.00
05/04/26 5:02:23 AM 38 3.0 11.0 51 78 68.0 54.3 29.975 7.14 0.0 0 0.00 0.00 0.00 0.00
05/04/26 5:03:33 AM 35 2.0 11.0 51 78 68.0 54.2 29.975 7.14 0.0 0 0.00 0.00 0.00 0.00
05/04/26 5:04:22 AM 38 1.0 11.0 51 78 68.1 54.3 29.969 7.14 0.0 0 0.00 0.00 0.00 0.00
05/04/26 5:05:35 AM 36 1.0 11.0 51 78 68.0 54.3 29.969 7.14 0.0 0 0.00 0.00 0.00 0.00
05/04/26 5:06:27 AM 32 2.0 11.0 51 78 68.0 54.3 29.968 7.14 0.0 0 0.00 0.00 0.00 0.00
05/04/26 5:07:18 AM 38 1.0 11.0 51 78 67.9 54.2 29.967 7.14 0.0 0 0.00 0.00 0.00 0.00
05/04/26 5:08:28 AM 38 2.0 11.0 51 78 67.9 54.2 29.970 7.14 0.0 0 0.00 0.00 0.00 0.00
05/04/26 5:09:20 AM 36 2.0 11.0 51 78 67.8 54.2 29.971 7.14 0.0 0 0.00 0.00 0.00 0.00
05/04/26 5:10:30 AM 38 3.0 11.0 51 78 67.7 54.2 29.970 7.14 0.0 0 0.00 0.00 0.00 0.00
05/04/26 5:11:22 AM 37 4.0 11.0 51 78 67.7 54.2 29.971 7.14 0.0 0 0.00 0.00 0.00 0.00
05/04/26 5:12:32 AM 38 4.0 11.0 51 78 67.6 54.2 29.975 7.14 0.0 0 0.00 0.00 0.00 0.00
05/04/26 5:13:20 AM 36 3.0 11.0 51 78 67.5 54.2 29.972 7.14 0.0 0 0.00 0.00 0.00 0.00
05/04/26 5:14:33 AM 35 3.0 11.0 51 78 67.5 54.2 29.973 7.14 0.0 0 0.00 0.00 0.00 0.00
05/04/26 5:15:28 AM 38 2.0 11.0 51 78 67.4 54.2 29.973 7.14 0.0 0 0.00 0.00 0.00 0.00
05/04/26 5:16:17 AM 31 2.0 11.0 51 78 67.2 54.2 29.974 7.14 0.0 0 0.00 0.00 0.00 0.00
05/04/26 5:17:30 AM 31 1.0 11.0 51 78 67.2 54.2 29.974 7.14 0.0 0 0.00 0.00 0.00 0.00
05/04/26 5:18:22 AM 38 2.0 11.0 51 78 67.1 54.2 29.973 7.14 0.0 0 0.00 0.00 0.00 0.00
05/04/26 5:19:32 AM 34 2.0 11.0 51 78 67.0 54.2 29.976 7.14 0.0 0 0.00 0.00 0.00 0.00
05/04/26 5:20:24 AM 36 2.0 11.0 51 78 66.9 54.2 29.975 7.14 0.0 0 0.00 0.00 0.00 0.00
05/04/26 5:21:33 AM 36 3.0 11.0 51 78 66.8 54.2 29.976 7.14 0.0 0 0.00 0.00 0.00 0.00
05/04/26 5:22:25 AM 36 3.0 11.0 51 78 66.6 54.2 29.974 7.14 0.0 0 0.00 0.00 0.00 0.00
05/04/26 5:23:17 AM 34 4.0 11.0 51 78 66.6 54.2 29.974 7.14 0.0 0 0.00 0.00 0.00 0.00
05/04/26 5:24:24 AM 35 3.0 11.0 51 78 66.5 54.2 29.976 7.14 0.0 0 0.00 0.00 0.00 0.00
05/04/26 5:25:19 AM 36 5.0 11.0 51 78 66.4 54.2 29.975 7.14 0.0 0 0.00 0.00 0.00 0.00
05/04/26 5:26:29 AM 35 2.0 11.0 51 78 66.4 54.2 29.978 7.14 0.0 0 0.00 0.00 0.00 0.00
05/04/26 5:27:21 AM 37 3.0 11.0 51 78 66.3 54.2 29.975 7.14 0.0 0 0.00 0.00 0.00 0.00
05/04/26 5:28:33 AM 37 4.0 11.0 51 78 66.2 54.2 29.974 7.14 0.0 0 0.00 0.00 0.00 0.00
05/04/26 5:29:22 AM 36 5.0 11.0 51 78 66.2 54.2 29.973 7.14 0.0 0 0.00 0.00 0.00 0.00
05/04/26 5:30:35 AM 37 6.0 11.0 51 78 66.1 54.2 29.974 7.14 0.0 0 0.00 0.00 0.00 0.00
05/04/26 5:31:27 AM 36 3.0 11.0 51 78 66.1 54.2 29.975 7.14 0.0 0 0.00 0.00 0.00 0.00
05/04/26 5:32:19 AM 35 4.0 11.0 52 78 66.0 54.2 29.978 7.14 0.0 0 0.00 0.00 0.00 0.00
05/04/26 5:33:29 AM 36 4.0 11.0 52 78 66.0 54.2 29.978 7.14 0.0 0 0.00 0.00 0.00 0.00
05/04/26 5:34:23 AM 35 3.0 11.0 52 78 65.9 54.2 29.977 7.14 0.0 0 0.00 0.00 0.00 0.00
05/04/26 5:35:30 AM 38 2.0 11.0 52 78 65.9 54.2 29.978 7.14 0.0 0 0.00 0.00 0.00 0.00
05/04/26 5:36:22 AM 36 3.0 11.0 52 79 65.8 54.2 29.977 7.14 0.0 0 0.00 0.00 0.00 0.00
05/04/26 5:37:32 AM 32 3.0 11.0 52 79 65.7 54.2 29.978 7.14 0.0 0 0.00 0.00 0.00 0.00
05/04/26 5:38:27 AM 38 3.0 11.0 52 79 65.7 54.2 29.978 7.14 0.0 0 0.00 0.00 0.00 0.00
05/04/26 5:39:19 AM 35 5.0 11.0 52 79 65.6 54.2 29.975 7.14 0.0 0 0.00 0.00 0.00 0.00
05/04/26 5:40:26 AM 36 3.0 11.0 52 79 65.6 54.2 29.975 7.14 0.0 0 0.00 0.00 0.00 0.00
05/04/26 5:41:17 AM 38 4.0 11.0 52 79 65.6 54.2 29.976 7.14 0.0 0 0.00 0.00 0.00 0.00
05/04/26 5:42:30 AM 36 4.0 11.0 52 79 65.5 54.2 29.979 7.14 0.0 0 0.00 0.00 0.00 0.00
05/04/26 5:43:22 AM 35 3.0 11.0 52 79 65.5 54.2 29.981 7.14 0.0 0 0.00 0.00 0.00 0.00
05/04/26 5:44:32 AM 36 4.0 11.0 52 79 65.5 54.2 29.983 7.14 0.0 0 0.00 0.00 0.00 0.00
05/04/26 5:45:24 AM 32 3.0 11.0 53 79 65.4 54.2 29.983 7.14 0.0 0 0.00 0.00 0.00 0.00
05/04/26 5:46:34 AM 35 4.0 11.0 53 79 65.4 54.2 29.985 7.14 0.0 0 0.00 0.00 0.00 0.00
05/04/26 5:47:26 AM 38 4.0 11.0 53 79 65.3 54.2 29.984 7.14 0.0 0 0.00 0.00 0.00 0.00
05/04/26 5:48:17 AM 36 2.0 11.0 53 79 65.3 54.2 29.982 7.14 0.0 0 0.00 0.00 0.00 0.00
05/04/26 5:49:30 AM 32 4.0 11.0 53 79 65.2 54.1 29.982 7.14 0.0 0 0.00 0.00 0.00 0.00
05/04/26 5:50:22 AM 35 4.0 11.0 53 79 65.2 54.1 29.982 7.14 0.0 0 0.00 0.00 0.00 0.00
05/04/26 5:51:29 AM 38 5.0 11.0 53 79 65.2 54.1 29.984 7.14 0.0 0 0.00 0.00 0.00 0.00
05/04/26 5:52:21 AM 36 4.0 11.0 53 79 65.2 54.1 29.984 7.14 0.0 0 0.00 0.00 0.00 0.00
05/04/26 5:53:34 AM 38 3.0 11.0 53 80 65.2 54.1 29.984 7.14 0.0 0 0.00 0.00 0.00 0.00
05/04/26 5:54:25 AM 38 3.0 11.0 53 80 65.1 54.1 29.985 7.14 0.0 0 0.00 0.00 0.00 0.00
05/04/26 5:55:17 AM 35 3.0 11.0 53 80 65.1 54.1 29.982 7.14 0.0 0 0.00 0.00 0.00 0.00
05/04/26 5:56:24 AM 38 3.0 11.0 53 80 65.1 54.0 29.981 7.14 0.0 0 0.00 0.00 0.00 0.00
05/04/26 5:57:16 AM 32 3.0 11.0 53 80 65.0 54.0 29.982 7.14 0.0 0 0.00 0.00 0.00 0.00
05/04/26 5:58:29 AM 39 4.0 11.0 53 80 65.0 54.0 29.981 7.14 0.0 0 0.00 0.00 0.00 0.00
05/04/26 5:59:21 AM 31 3.0 11.0 53 80 64.9 54.0 29.982 7.14 0.0 0 0.00 0.00 0.00 0.00
05/04/26 6:00:34 AM 34 3.0 11.0 53 80 64.9 54.0 29.981 7.14 0.0 0 0.00 0.00 0.00 0.00
05/04/26 6:01:22 AM 38 3.0 11.0 54 80 64.9 54.0 29.981 7.14 0.0 0 0.00 0.00 0.00 0.00
05/04/26 6:02:35 AM 35 3.0 11.0 54 80 64.9 54.0 29.982 7.14 0.0 0 0.00 0.00 0.00 0.00
05/04/26 6:03:27 AM 38 3.0 11.0 54 80 64.9 54.0 29.982 7.14 0.0 0 0.00 0.00 0.00 0.00
05/04/26 6:04:19 AM 38 3.0 11.0 54 80 64.9 54.0 29.982 7.14 0.0 0 0.00 0.00 0.00 0.00
05/04/26 6:05:29 AM 36 2.0 11.0 54 80 64.8 53.9 29.983 7.14 0.0 0 0.00 0.00 0.00 0.00
05/04/26 6:06:21 AM 36 2.0 11.0 54 80 64.8 54.0 29.983 7.14 0.0 0 0.00 0.00 0.00 0.00
05/04/26 6:07:31 AM 32 2.0 11.0 54 80 64.7 53.9 29.981 7.14 0.0 0 0.00 0.00 0.00 0.00
05/04/26 6:08:32 AM 36 3.0 11.0 54 80 64.7 53.9 29.982 7.14 0.0 0 0.00 0.00 0.00 0.00
05/04/26 6:09:26 AM 34 1.0 11.0 54 80 64.7 53.9 29.983 7.14 0.0 5 0.00 0.00 0.00 0.00
05/04/26 6:10:18 AM 38 2.0 11.0 54 80 64.7 53.9 29.981 7.14 0.0 5 0.00 0.00 0.00 0.00
05/04/26 6:11:31 AM 35 2.0 11.0 54 80 64.6 53.9 29.985 7.14 0.0 7 0.00 0.00 0.00 0.00
05/04/26 6:12:17 AM 37 1.0 11.0 54 80 64.7 53.9 29.986 7.14 0.0 7 0.00 0.00 0.00 0.00
05/04/26 6:13:30 AM 38 1.0 11.0 54 80 64.6 53.9 29.984 7.14 0.0 7 0.00 0.00 0.00 0.00
05/04/26 6:14:22 AM 36 1.0 11.0 54 80 64.6 53.9 29.985 7.14 0.0 9 0.00 0.00 0.00 0.00
05/04/26 6:15:35 AM 36 2.0 11.0 54 80 64.5 53.9 29.984 7.14 0.0 9 0.00 0.00 0.00 0.00
05/04/26 6:16:26 AM 32 2.0 11.0 54 80 64.5 53.9 29.986 7.14 0.0 11 0.00 0.00 0.00 0.00
05/04/26 6:17:18 AM 35 2.0 11.0 54 80 64.5 53.9 29.983 7.14 0.0 11 0.00 0.00 0.00 0.00
05/04/26 6:18:28 AM 31 3.0 11.0 54 80 64.5 53.9 29.983 7.14 0.0 12 0.00 0.00 0.00 0.00
05/04/26 6:19:20 AM 36 3.0 11.0 54 80 64.5 53.9 29.983 7.14 0.0 12 0.00 0.00 0.00 0.00
05/04/26 6:20:30 AM 38 2.0 11.0 54 80 64.4 53.9 29.983 7.14 0.0 14 0.00 0.00 0.00 0.00
05/04/26 6:21:22 AM 35 1.0 11.0 54 80 64.4 53.9 29.984 7.14 0.0 14 0.00 0.00 0.00 0.00
05/04/26 6:22:35 AM 36 2.0 11.0 55 80 64.4 53.9 29.984 7.14 0.0 14 0.00 0.00 0.00 0.00
05/04/26 6:23:23 AM 36 2.0 11.0 55 80 64.4 53.9 29.987 7.14 0.0 14 0.00 0.00 0.00 0.00
05/04/26 6:24:33 AM 34 2.0 11.0 55 80 64.4 53.9 29.987 7.14 0.0 18 0.00 0.00 0.00 0.00
05/04/26 6:25:25 AM 34 2.0 11.0 55 80 64.3 53.8 29.986 7.14 0.0 18 0.00 0.00 0.00 0.00
05/04/26 6:26:17 AM 34 2.0 11.0 55 80 64.3 53.9 29.986 7.14 0.0 19 0.00 0.00 0.00 0.00
05/04/26 6:27:30 AM 37 4.0 11.0 55 80 64.3 53.8 29.985 7.14 0.0 23 0.00 0.00 0.00 0.00
05/04/26 6:28:18 AM 38 2.0 11.0 55 80 64.3 53.8 29.983 7.14 0.0 23 0.00 0.00 0.00 0.00
05/04/26 6:29:28 AM 38 1.0 11.0 55 80 64.2 53.9 29.984 7.14 0.0 26 0.00 0.00 0.00 0.00
05/04/26 6:30:23 AM 36 1.0 11.0 55 80 64.2 53.8 29.986 7.14 0.0 28 0.00 0.00 0.00 0.00
05/04/26 6:31:33 AM 31 0.0 11.0 55 80 64.2 53.8 29.984 7.14 0.0 30 0.00 0.00 0.00 0.00
05/04/26 6:32:25 AM 37 0.0 11.0 55 80 64.2 53.8 29.981 7.14 0.0 30 0.00 0.00 0.00 0.00
05/04/26 6:33:17 AM 34 0.0 11.0 55 80 64.2 53.8 29.981 7.14 0.0 32 0.00 0.00 0.00 0.00
05/04/26 6:34:24 AM 34 0.0 11.0 55 80 64.1 53.8 29.982 7.14 0.0 32 0.00 0.00 0.00 0.00
05/04/26 6:35:19 AM 36 0.0 11.0 55 80 64.2 53.8 29.982 7.14 0.0 32 0.00 0.00 0.00 0.00
05/04/26 6:36:29 AM 35 0.0 11.0 55 80 64.1 53.8 29.981 7.14 0.0 32 0.00 0.00 0.00 0.00
05/04/26 6:37:20 AM 38 0.0 11.0 55 80 64.1 53.8 29.980 7.14 0.0 33 0.00 0.00 0.00 0.00
05/04/26 6:38:33 AM 32 0.0 11.0 55 80 64.1 53.8 29.983 7.14 0.0 33 0.00 0.00 0.00 0.00
05/04/26 6:39:22 AM 34 0.0 11.0 55 80 64.1 53.8 29.983 7.14 0.0 33 0.00 0.00 0.00 0.00
05/04/26 6:40:32 AM 34 0.0 11.0 55 81 64.0 53.8 29.981 7.14 0.0 35 0.00 0.00 0.00 0.00
05/04/26 6:41:24 AM 36 0.0 11.0 55 81 64.0 53.8 29.983 7.14 0.0 37 0.00 0.00 0.00 0.00
05/04/26 6:42:16 AM 36 0.0 11.0 55 81 64.0 53.8 29.981 7.14 0.0 37 0.00 0.00 0.00 0.00
05/04/26 6:43:28 AM 36 0.0 11.0 55 81 64.0 53.8 29.983 7.14 0.0 39 0.00 0.00 0.00 0.00
05/04/26 6:44:17 AM 34 0.0 11.0 55 81 64.0 53.8 29.983 7.14 0.0 39 0.00 0.00 0.00 0.00
05/04/26 6:45:30 AM 34 0.0 11.0 55 80 64.0 53.8 29.984 7.14 0.0 40 0.00 0.00 0.00 0.00
05/04/26 6:46:22 AM 35 0.0 11.0 55 81 63.9 53.8 29.987 7.14 0.0 40 0.00 0.00 0.00 0.00
05/04/26 6:47:35 AM 36 0.0 11.0 55 81 64.0 53.8 29.988 7.14 0.0 37 0.00 0.00 0.00 0.00
05/04/26 6:48:30 AM 36 0.0 11.0 55 81 63.9 53.8 29.989 7.14 0.0 37 0.00 0.00 0.00 0.00
05/04/26 6:49:22 AM 34 0.0 11.0 55 81 63.9 53.8 29.986 7.14 0.0 39 0.00 0.00 0.00 0.00
05/04/26 6:50:29 AM 36 0.0 11.0 55 81 63.9 53.8 29.983 7.14 0.0 39 0.00 0.00 0.00 0.00
05/04/26 6:51:20 AM 36 0.0 11.0 55 81 63.8 53.8 29.984 7.14 0.0 42 0.00 0.00 0.00 0.00
05/04/26 6:52:33 AM 35 0.0 11.0 55 81 63.9 53.8 29.982 7.14 0.0 44 0.00 0.00 0.00 0.00
05/04/26 6:53:25 AM 38 0.0 11.0 55 81 63.9 53.8 29.985 7.14 0.0 46 0.00 0.00 0.00 0.00
05/04/26 6:54:35 AM 38 6.0 11.0 56 81 63.8 53.9 29.983 7.14 0.0 46 0.00 0.00 0.00 0.00
05/04/26 6:55:24 AM 37 3.0 11.0 56 80 63.8 53.8 29.987 7.14 0.0 46 0.00 0.00 0.00 0.00
05/04/26 6:56:37 AM 36 2.0 11.0 56 80 63.8 53.8 29.987 7.14 0.0 42 0.00 0.00 0.00 0.00
05/04/26 6:57:29 AM 36 0.0 11.0 56 80 63.8 53.8 29.987 7.14 0.0 39 0.00 0.00 0.00 0.00
05/04/26 6:58:21 AM 35 0.0 11.0 56 81 63.8 53.8 29.990 7.14 0.0 35 0.00 0.00 0.00 0.00
05/04/26 6:59:33 AM 36 0.0 11.0 56 81 63.8 53.8 29.991 7.14 0.0 35 0.00 0.00 0.00 0.00
05/04/26 7:00:22 AM 35 0.0 11.0 56 81 63.8 53.8 29.991 7.14 0.0 37 0.00 0.00 0.00 0.00
05/04/26 7:01:35 AM 35 0.0 11.0 56 81 63.8 53.9 29.989 7.14 0.0 39 0.00 0.00 0.00 0.00
05/04/26 7:02:27 AM 35 0.0 11.0 56 81 63.8 53.9 29.989 7.14 0.0 42 0.00 0.00 0.00 0.00
05/04/26 7:03:19 AM 36 2.0 11.0 56 81 63.8 53.9 29.989 7.14 0.0 46 0.00 0.00 0.00 0.00
05/04/26 7:04:29 AM 35 3.0 11.0 56 81 63.8 53.9 29.988 7.14 0.0 49 0.00 0.00 0.00 0.00
05/04/26 7:05:24 AM 37 4.0 11.0 56 81 63.8 53.9 29.989 7.14 0.0 51 0.00 0.00 0.00 0.00
05/04/26 7:06:28 AM 38 5.0 11.0 56 80 63.7 53.9 29.988 7.14 0.0 53 0.00 0.00 0.00 0.00
05/04/26 7:07:22 AM 38 3.0 11.0 56 80 63.8 53.9 29.988 7.14 0.0 54 0.00 0.00 0.00 0.00
05/04/26 7:08:32 AM 38 2.0 11.0 56 80 63.8 53.9 29.986 7.14 0.0 60 0.00 0.00 0.00 0.00
05/04/26 7:09:27 AM 36 2.0 11.0 56 80 63.7 53.9 29.982 7.14 0.0 67 0.00 0.00 0.00 0.00
05/04/26 7:10:19 AM 34 2.0 11.0 56 80 63.7 53.9 29.984 7.14 0.0 72 0.00 0.00 0.00 0.00
05/04/26 7:11:26 AM 32 3.0 11.0 56 80 63.7 53.9 29.978 7.14 0.0 84 0.00 0.00 0.00 0.00
05/04/26 7:12:18 AM 34 4.0 11.0 56 80 63.7 53.9 29.981 7.14 0.0 84 0.00 0.00 0.00 0.00
05/04/26 7:13:31 AM 38 3.0 11.0 56 80 63.6 54.0 29.976 7.14 0.0 77 0.00 0.00 0.00 0.00
05/04/26 7:14:23 AM 36 4.0 11.0 56 80 63.7 54.0 29.976 7.14 0.0 74 0.00 0.00 0.00 0.00
05/04/26 7:15:36 AM 34 5.0 11.0 56 80 63.7 54.0 29.975 7.14 0.0 74 0.00 0.00 0.00 0.00
05/04/26 7:16:21 AM 34 3.0 11.0 56 80 63.7 54.0 29.980 7.14 0.0 74 0.00 0.00 0.00 0.00
05/04/26 7:17:34 AM 37 4.0 11.0 56 80 63.7 54.0 29.980 7.14 0.0 79 0.00 0.00 0.00 0.00
05/04/26 7:18:26 AM 36 4.0 11.0 56 80 63.6 54.0 29.983 7.14 0.0 86 0.00 0.00 0.00 0.00
05/04/26 7:19:18 AM 38 4.0 11.0 56 80 63.7 54.0 29.983 7.14 0.0 86 0.00 0.00 0.00 0.00
05/04/26 7:20:31 AM 36 4.0 11.0 56 80 63.6 54.0 29.987 7.14 0.0 98 0.00 0.00 0.00 0.00
05/04/26 7:21:23 AM 35 3.0 11.0 56 80 63.7 54.0 29.985 7.14 0.0 104 0.00 0.00 0.00 0.00
05/04/26 7:22:30 AM 37 3.0 11.0 56 79 63.6 54.0 29.982 7.14 0.0 107 0.00 0.00 0.00 0.00
05/04/26 7:23:22 AM 34 3.0 11.0 56 79 63.6 54.0 29.982 7.14 0.0 107 0.00 0.00 0.00 0.00
05/04/26 7:24:35 AM 36 3.0 11.0 56 79 63.6 54.0 29.981 7.14 0.0 116 0.00 0.00 0.00 0.00
05/04/26 7:25:26 AM 38 3.0 11.0 56 79 63.6 54.0 29.978 7.14 0.0 116 0.00 0.00 0.00 0.00
05/04/26 7:26:18 AM 36 2.0 11.0 56 79 63.6 54.0 29.980 7.14 0.0 116 0.00 0.00 0.00 0.00
05/04/26 7:27:28 AM 38 4.0 11.0 56 79 63.6 54.1 29.978 7.14 0.0 114 0.00 0.00 0.00 0.00
05/04/26 7:28:20 AM 34 3.0 11.0 56 79 63.6 54.1 29.978 7.14 0.0 118 0.00 0.00 0.00 0.00
05/04/26 7:29:33 AM 38 3.0 11.0 56 79 63.5 54.1 29.980 7.14 0.0 120 0.00 0.00 0.00 0.00
05/04/26 7:30:25 AM 35 2.0 11.0 56 79 63.5 54.1 29.981 7.14 0.0 120 0.00 0.00 0.00 0.00
05/04/26 7:31:35 AM 38 3.0 11.0 56 79 63.6 54.2 29.982 7.14 0.0 114 0.00 0.00 0.00 0.00
05/04/26 7:32:24 AM 34 2.0 11.0 56 79 63.5 54.2 29.983 7.14 0.0 107 0.00 0.00 0.00 0.00
05/04/26 7:33:37 AM 38 2.0 11.0 56 79 63.5 54.2 29.982 7.14 0.0 104 0.00 0.00 0.00 0.00
05/04/26 7:34:28 AM 38 2.0 11.0 56 79 63.5 54.2 29.978 7.14 0.0 104 0.00 0.00 0.00 0.00
05/04/26 7:35:20 AM 34 2.0 11.0 56 79 63.5 54.3 29.980 7.14 0.0 109 0.00 0.00 0.00 0.00
05/04/26 7:36:33 AM 35 3.0 11.0 56 79 63.5 54.3 29.981 7.14 0.0 109 0.00 0.00 0.00 0.00
05/04/26 7:37:25 AM 36 4.0 11.0 56 79 63.5 54.3 29.982 7.14 0.0 111 0.00 0.00 0.00 0.00
05/04/26 7:38:35 AM 35 2.0 11.0 56 79 63.5 54.3 29.985 7.14 0.0 113 0.00 0.00 0.00 0.00
05/04/26 7:39:27 AM 32 3.0 11.0 56 79 63.5 54.3 29.986 7.14 0.0 111 0.00 0.00 0.00 0.00
05/04/26 7:40:19 AM 35 4.0 11.0 56 79 63.5 54.3 29.986 7.14 0.0 109 0.00 0.00 0.00 0.00
05/04/26 7:41:32 AM 35 2.0 11.0 56 79 63.4 54.4 29.988 7.14 0.0 111 0.00 0.00 0.00 0.00
05/04/26 7:42:24 AM 38 2.0 11.0 56 78 63.4 54.4 29.986 7.14 0.0 104 0.00 0.00 0.00 0.00
05/04/26 7:43:31 AM 38 4.0 11.0 56 78 63.4 54.4 29.986 7.14 0.0 113 0.00 0.00 0.00 0.00
05/04/26 7:44:23 AM 38 3.0 11.0 56 78 63.4 54.4 29.986 7.14 0.0 113 0.00 0.00 0.00 0.00
05/04/26 7:45:36 AM 38 3.0 11.0 56 78 63.4 54.4 29.988 7.14 0.0 116 0.00 0.00 0.00 0.00
05/04/26 7:46:27 AM 32 4.0 11.0 56 78 63.4 54.4 29.985 7.14 0.0 130 0.00 0.00 0.00 0.00
05/04/26 7:47:19 AM 32 4.0 11.0 56 78 63.4 54.4 29.989 7.14 0.0 123 0.00 0.00 0.00 0.00
05/04/26 7:48:29 AM 39 4.0 11.0 56 78 63.4 54.4 29.989 7.14 0.0 102 0.00 0.00 0.00 0.00
05/04/26 7:49:21 AM 38 2.0 11.0 56 78 63.4 54.5 29.989 7.14 0.0 102 0.00 0.00 0.00 0.00
05/04/26 7:50:34 AM 35 3.0 11.0 56 78 63.4 54.5 29.986 7.14 0.0 111 0.00 0.00 0.00 0.00
05/04/26 7:51:26 AM 32 4.0 11.0 56 78 63.4 54.5 29.989 7.14 0.0 120 0.00 0.00 0.00 0.00
05/04/26 7:52:18 AM 32 1.0 11.0 56 78 63.4 54.5 29.989 7.14 0.0 120 0.00 0.00 0.00 0.00
05/04/26 7:53:31 AM 36 2.0 11.0 56 78 63.4 54.5 29.991 7.14 0.0 123 0.00 0.00 0.00 0.00
05/04/26 7:54:19 AM 38 2.0 11.0 56 78 63.4 54.5 29.989 7.14 0.0 125 0.00 0.00 0.00 0.00
05/04/26 7:55:29 AM 38 3.0 11.0 56 78 63.4 54.5 29.989 7.14 0.0 111 0.00 0.00 0.00 0.00
05/04/26 7:56:21 AM 35 3.0 11.0 56 78 63.4 54.6 29.988 7.14 0.0 111 0.00 0.00 0.00 0.00
05/04/26 7:57:34 AM 37 0.0 11.0 56 78 63.4 54.6 29.990 7.14 0.0 127 0.00 0.00 0.00 0.00
05/04/26 7:58:26 AM 36 0.0 11.0 56 78 63.4 54.6 29.989 7.14 0.0 128 0.00 0.00 0.00 0.00
05/04/26 7:59:36 AM 35 0.0 11.0 56 78 63.4 54.6 29.990 7.14 0.0 144 0.00 0.00 0.00 0.00
05/04/26 8:00:28 AM 35 0.0 11.0 56 78 63.4 54.6 29.991 7.14 0.0 176 0.00 0.00 0.00 0.00
05/04/26 8:01:20 AM 36 0.0 11.0 56 78 63.4 54.7 29.991 7.14 0.5 176 0.00 0.00 0.00 0.00
05/04/26 8:02:33 AM 35 3.0 11.0 56 78 63.3 54.7 29.990 7.14 0.5 195 0.00 0.00 0.00 0.00
05/04/26 8:03:25 AM 32 2.0 11.0 56 78 63.3 54.7 29.989 7.14 0.5 186 0.00 0.00 0.00 0.00
05/04/26 8:04:17 AM 34 3.0 11.0 56 77 63.3 54.8 29.991 7.14 0.5 186 0.00 0.00 0.00 0.00
05/04/26 8:05:23 AM 38 1.0 11.0 56 77 63.4 54.8 29.989 7.14 0.5 171 0.00 0.00 0.00 0.00
05/04/26 8:06:36 AM 38 2.0 11.0 56 77 63.3 54.8 29.990 7.14 0.5 171 0.00 0.00 0.00 0.00
05/04/26 8:07:28 AM 38 4.0 11.0 56 77 63.3 54.9 29.988 7.14 0.5 171 0.00 0.00 0.00 0.00
05/04/26 8:08:20 AM 35 3.0 11.0 56 77 63.4 54.8 29.986 7.14 0.6 186 0.00 0.00 0.00 0.00
05/04/26 8:09:24 AM 32 3.0 11.0 56 77 63.3 54.9 29.985 7.14 0.6 188 0.00 0.00 0.00 0.00
05/04/26 8:10:31 AM 36 3.0 11.0 56 77 63.3 54.9 29.987 7.14 0.6 223 0.00 0.00 0.00 0.00
05/04/26 8:11:23 AM 32 3.0 11.0 56 76 63.3 54.9 29.987 7.14 0.7 308 0.00 0.00 0.00 0.00
05/04/26 8:12:36 AM 38 3.0 11.0 56 76 63.4 54.9 29.989 7.14 0.7 318 0.00 0.00 0.00 0.00
05/04/26 8:13:28 AM 38 3.0 11.0 56 76 63.3 55.0 29.985 7.14 0.7 318 0.00 0.00 0.00 0.00
05/04/26 8:14:20 AM 36 2.0 11.0 56 76 63.4 55.0 29.992 7.14 0.7 260 0.00 0.00 0.00 0.00
05/04/26 8:15:30 AM 38 2.0 11.0 56 76 63.4 55.1 29.991 7.14 0.7 255 0.00 0.00 0.00 0.00
05/04/26 8:16:22 AM 35 4.0 11.0 56 76 63.4 55.1 29.990 7.14 0.7 207 0.00 0.00 0.00 0.00
05/04/26 8:17:34 AM 37 3.0 11.0 56 76 63.4 55.2 29.990 7.14 0.8 255 0.00 0.00 0.00 0.00
05/04/26 8:18:26 AM 37 2.0 11.0 56 76 63.4 55.3 29.987 7.14 0.8 255 0.00 0.00 0.00 0.00
05/04/26 8:19:18 AM 34 1.0 11.0 56 76 63.4 55.3 29.988 7.14 0.8 285 0.00 0.00 0.00 0.00
05/04/26 8:20:28 AM 36 1.0 11.0 56 76 63.4 55.3 29.990 7.14 0.8 304 0.00 0.00 0.00 0.00
05/04/26 8:21:17 AM 36 2.0 11.0 56 76 63.5 55.4 29.990 7.14 0.8 239 0.00 0.00 0.00 0.00
05/04/26 8:22:30 AM 38 2.0 11.0 56 75 63.4 55.5 29.990 7.14 0.8 287 0.00 0.00 0.00 0.00
05/04/26 8:23:22 AM 35 1.0 11.0 56 75 63.4 55.6 29.990 7.14 0.8 288 0.00 0.00 0.00 0.00
05/04/26 8:24:35 AM 34 2.0 11.0 56 75 63.4 55.7 29.992 7.14 0.9 357 0.00 0.00 0.00 0.00
05/04/26 8:25:27 AM 38 1.0 11.0 56 75 63.5 55.7 29.991 7.14 0.9 357 0.00 0.00 0.00 0.00
05/04/26 8:26:34 AM 38 0.0 11.0 56 75 63.5 55.8 29.991 7.14 0.8 316 0.00 0.00 0.00 0.00
05/04/26 8:27:26 AM 37 3.0 11.0 56 75 63.5 55.9 29.991 7.14 0.8 230 0.00 0.00 0.00 0.00
05/04/26 8:28:18 AM 35 3.0 11.0 56 75 63.6 56.0 29.994 7.14 0.7 200 0.00 0.00 0.00 0.00
05/04/26 8:29:31 AM 38 2.0 11.0 56 74 63.5 56.0 29.991 7.14 0.7 186 0.00 0.00 0.00 0.00
05/04/26 8:30:26 AM 37 3.0 11.0 56 74 63.6 56.1 29.990 7.14 0.8 186 0.00 0.00 0.00 0.00
05/04/26 8:31:33 AM 36 2.0 11.0 56 74 63.6 56.1 29.988 7.14 0.8 202 0.00 0.00 0.00 0.00
05/04/26 8:32:22 AM 31 3.0 11.0 56 73 63.7 56.2 29.989 7.14 0.8 287 0.00 0.00 0.00 0.00
05/04/26 8:33:35 AM 36 1.0 11.0 56 73 63.6 56.1 29.990 7.14 0.7 287 0.00 0.00 0.00 0.00
05/04/26 8:34:27 AM 38 2.0 11.0 56 73 63.6 56.2 29.990 7.14 0.8 193 0.00 0.00 0.00 0.00
05/04/26 8:35:18 AM 32 4.0 11.0 56 73 63.6 56.2 29.989 7.14 0.9 220 0.00 0.00 0.00 0.00
05/04/26 8:36:31 AM 38 3.0 11.0 56 73 63.6 56.2 29.985 7.14 0.9 274 0.00 0.00 0.00 0.00
05/04/26 8:37:20 AM 37 1.0 11.0 56 73 63.7 56.1 29.991 7.14 0.9 234 0.00 0.00 0.00 0.00
05/04/26 8:38:33 AM 35 1.0 11.0 56 73 63.7 56.1 29.988 7.14 0.9 232 0.00 0.00 0.00 0.00
05/04/26 8:39:25 AM 37 1.0 11.0 56 73 63.7 56.1 29.986 7.14 1.0 250 0.00 0.00 0.00 0.00
05/04/26 8:40:35 AM 38 2.0 11.0 56 73 63.6 56.2 29.986 7.14 0.9 197 0.00 0.00 0.00 0.00
05/04/26 8:41:27 AM 32 3.0 11.0 56 73 63.6 56.2 29.990 7.14 0.9 248 0.00 0.00 0.00 0.00
05/04/26 8:42:34 AM 35 5.0 11.0 56 73 63.7 56.2 29.989 7.14 1.0 281 0.00 0.00 0.00 0.00
05/04/26 8:43:26 AM 38 1.0 11.0 56 72 63.6 56.3 29.990 7.14 1.0 345 0.00 0.00 0.00 0.00
05/04/26 8:44:18 AM 36 2.0 11.0 56 72 63.7 56.4 29.988 7.14 1.2 603 0.00 0.00 0.00 0.00
05/04/26 8:45:52 AM 35 5.0 11.0 56 72 63.7 56.5 29.988 7.14 1.5 635 0.00 0.00 0.00 0.00
05/04/26 8:46:23 AM 35 4.0 11.0 56 72 63.7 56.5 29.992 7.14 1.5 700 0.00 0.00 0.00 0.00
05/04/26 8:47:18 AM 34 3.0 11.0 56 72 63.7 56.6 29.990 7.14 1.2 700 0.00 0.00 0.00 0.00
05/04/26 8:48:25 AM 38 4.0 11.0 56 72 63.7 56.9 29.994 7.14 1.0 700 0.00 0.00 0.00 0.00
05/04/26 8:49:17 AM 37 3.0 11.0 56 72 63.7 57.0 29.991 7.14 1.1 427 0.00 0.00 0.00 0.00
05/04/26 8:50:27 AM 40 3.0 11.0 56 71 63.7 57.1 29.993 7.14 0.8 427 0.00 0.00 0.00 0.00
05/04/26 8:51:19 AM 38 3.0 11.0 56 71 63.7 57.2 29.991 7.14 0.9 427 0.00 0.00 0.00 0.00
05/04/26 8:52:32 AM 38 2.0 11.0 56 70 63.7 57.2 29.994 7.14 1.0 427 0.00 0.00 0.00 0.00
05/04/26 8:53:17 AM 38 4.0 11.0 56 70 63.7 57.2 29.992 7.14 1.0 227 0.00 0.00 0.00 0.00
05/04/26 8:54:30 AM 35 2.0 11.0 56 70 63.8 57.2 29.990 7.14 1.0 200 0.00 0.00 0.00 0.00
05/04/26 8:55:22 AM 39 3.0 11.0 56 70 63.8 57.2 29.989 7.14 1.1 255 0.00 0.00 0.00 0.00
05/04/26 8:56:32 AM 32 6.0 11.0 56 70 63.8 57.2 29.992 7.14 1.2 313 0.00 0.00 0.00 0.00
05/04/26 8:57:27 AM 35 2.0 11.0 56 70 63.8 57.3 29.992 7.14 1.4 313 0.00 0.00 0.00 0.00
05/04/26 8:58:19 AM 38 0.0 11.0 56 70 63.8 57.3 29.986 7.14 1.4 313 0.00 0.00 0.00 0.00
05/04/26 8:59:26 AM 35 5.0 11.0 56 70 63.8 57.4 29.991 7.14 1.4 313 0.00 0.00 0.00 0.00
05/04/26 9:00:21 AM 37 3.0 11.0 56 70 63.8 57.5 29.990 7.14 1.1 329 0.00 0.00 0.00 0.00
05/04/26 9:01:34 AM 38 0.0 11.0 56 69 63.8 57.6 29.990 7.14 1.0 297 0.00 0.00 0.00 0.00
05/04/26 9:02:26 AM 38 4.0 11.0 56 69 63.9 57.7 29.985 7.14 1.3 371 0.00 0.00 0.00 0.00
05/04/26 9:03:18 AM 38 1.0 11.0 56 69 63.8 57.7 29.988 7.14 1.2 299 0.00 0.00 0.00 0.00
05/04/26 9:04:28 AM 38 3.0 11.0 56 69 63.9 57.8 29.987 7.14 1.2 287 0.00 0.00 0.00 0.00
05/04/26 9:05:20 AM 32 3.0 11.0 56 69 63.9 57.8 29.988 7.14 1.0 262 0.00 0.00 0.00 0.00
05/04/26 9:06:33 AM 35 4.0 11.0 56 68 63.9 57.8 29.989 7.14 1.0 278 0.00 0.00 0.00 0.00
05/04/26 9:07:25 AM 35 5.0 11.0 56 68 63.9 57.8 29.989 7.14 1.0 221 0.00 0.00 0.00 0.00
05/04/26 9:08:35 AM 38 3.0 11.0 56 68 63.9 57.7 29.988 7.14 1.0 243 0.00 0.00 0.00 0.00
05/04/26 9:09:24 AM 36 3.0 11.0 56 68 63.9 57.7 29.990 7.14 1.0 243 0.00 0.00 0.00 0.00
05/04/26 9:10:16 AM 37 2.0 11.0 56 68 63.9 57.7 29.990 7.14 1.1 223 0.00 0.00 0.00 0.00
05/04/26 9:11:29 AM 38 2.0 11.0 56 68 64.0 57.7 29.990 7.14 1.1 281 0.00 0.00 0.00 0.00
05/04/26 9:12:21 AM 35 1.0 11.0 56 68 64.0 57.7 29.987 7.14 1.2 251 0.00 0.00 0.00 0.00
05/04/26 9:13:34 AM 35 3.0 11.0 56 68 64.0 57.7 29.990 7.14 1.1 220 0.00 0.00 0.00 0.00
05/04/26 9:14:26 AM 35 6.0 11.0 56 68 64.0 57.8 29.992 7.14 1.1 229 0.00 0.00 0.00 0.00
05/04/26 9:15:36 AM 36 3.0 11.0 56 68 64.0 57.8 29.987 7.14 1.2 246 0.00 0.00 0.00 0.00
05/04/26 9:16:25 AM 37 6.0 11.0 56 68 64.0 57.8 29.990 7.14 1.2 260 0.00 0.00 0.00 0.00
05/04/26 9:17:17 AM 34 2.0 11.0 56 67 64.1 57.8 29.990 7.14 1.2 248 0.00 0.00 0.00 0.00
05/04/26 9:18:30 AM 34 5.0 11.0 56 67 64.0 57.8 29.992 7.14 1.2 232 0.00 0.00 0.00 0.00
05/04/26 9:19:22 AM 35 7.0 11.0 56 67 64.0 57.8 29.992 7.14 1.2 221 0.00 0.00 0.00 0.00
05/04/26 9:20:29 AM 31 6.0 11.0 56 67 64.0 57.7 29.993 7.14 1.2 237 0.00 0.00 0.00 0.00
05/04/26 9:21:21 AM 35 4.0 11.0 56 65 64.0 57.7 29.995 7.14 1.2 234 0.00 0.00 0.00 0.00
05/04/26 9:22:34 AM 38 4.0 11.0 56 65 64.0 57.6 29.995 7.14 1.3 262 0.00 0.00 0.00 0.00
05/04/26 9:23:26 AM 36 3.0 11.0 56 65 64.0 57.6 29.994 7.14 1.3 262 0.00 0.00 0.00 0.00
05/04/26 9:24:18 AM 35 3.0 11.0 56 66 64.0 57.5 29.996 7.14 1.2 258 0.00 0.00 0.00 0.00
05/04/26 9:25:28 AM 34 2.0 11.0 56 66 64.0 57.5 29.995 7.14 1.2 253 0.00 0.00 0.00 0.00
05/04/26 9:26:20 AM 36 3.0 11.0 56 66 64.0 57.5 29.996 7.14 1.2 251 0.00 0.00 0.00 0.00
05/04/26 9:27:30 AM 36 2.0 11.0 56 66 64.1 57.5 29.999 7.14 1.2 220 0.00 0.00 0.00 0.00
05/04/26 9:28:22 AM 38 0.0 11.0 56 66 64.1 57.5 29.997 7.14 1.1 221 0.00 0.00 0.00 0.00
05/04/26 9:29:32 AM 34 3.0 11.0 56 65 64.1 57.5 30.000 7.14 1.3 281 0.00 0.00 0.00 0.00
05/04/26 9:30:27 AM 35 3.0 11.0 56 65 64.1 57.5 29.998 7.14 1.4 306 0.00 0.00 0.00 0.00
05/04/26 9:31:34 AM 37 6.0 11.0 56 65 64.1 57.5 29.997 7.14 1.4 292 0.00 0.00 0.00 0.00
05/04/26 9:32:25 AM 32 5.0 11.0 56 66 64.1 57.5 29.998 7.14 1.5 345 0.00 0.00 0.00 0.00
05/04/26 9:33:17 AM 32 5.0 11.0 56 66 64.1 57.6 29.999 7.14 1.4 309 0.00 0.00 0.00 0.00
05/04/26 9:34:27 AM 30 5.0 11.0 56 65 64.1 57.6 29.997 7.14 1.3 295 0.00 0.00 0.00 0.00
05/04/26 9:35:22 AM 35 5.0 11.0 56 65 64.1 57.6 29.997 7.14 1.3 274 0.00 0.00 0.00 0.00
05/04/26 9:36:29 AM 36 4.0 11.0 56 64 64.1 57.6 29.999 7.14 1.2 253 0.00 0.00 0.00 0.00
05/04/26 9:37:18 AM 38 3.0 11.0 56 64 64.2 57.6 29.999 7.14 1.2 232 0.00 0.00 0.00 0.00
05/04/26 9:38:31 AM 34 6.0 11.0 56 64 64.2 57.6 30.000 7.14 1.3 264 0.00 0.00 0.00 0.00
05/04/26 9:39:23 AM 35 6.0 11.0 56 64 64.1 57.7 29.998 7.14 1.5 306 0.00 0.00 0.00 0.00
05/04/26 9:40:15 AM 32 3.0 11.0 56 63 64.2 57.7 30.001 7.14 1.5 306 0.00 0.00 0.00 0.00
05/04/26 9:41:25 AM 34 2.0 11.0 56 63 64.2 57.7 30.003 7.14 1.6 376 0.00 0.00 0.00 0.00
05/04/26 9:42:17 AM 34 3.0 11.0 56 63 64.2 57.7 30.004 7.14 1.6 362 0.00 0.00 0.00 0.00
05/04/26 9:43:30 AM 36 2.0 11.0 56 63 64.2 57.7 30.001 7.14 1.4 315 0.00 0.00 0.00 0.00
05/04/26 9:44:22 AM 32 2.0 11.0 56 63 64.2 57.8 30.000 7.14 1.4 311 0.00 0.00 0.00 0.00
05/04/26 9:45:38 AM 38 5.0 11.0 56 64 64.2 57.9 30.002 7.14 1.4 323 0.00 0.00 0.00 0.00
05/04/26 9:46:27 AM 30 5.0 11.0 56 64 64.2 58.0 30.001 7.14 1.6 406 0.00 0.00 0.00 0.00
05/04/26 9:47:16 AM 36 5.0 11.0 56 64 64.2 58.0 30.000 7.14 1.9 482 0.00 0.00 0.00 0.00
05/04/26 9:48:29 AM 37 4.0 11.0 56 65 64.2 58.1 29.998 7.14 1.6 397 0.00 0.00 0.00 0.00
05/04/26 9:49:21 AM 36 1.0 11.0 56 65 64.2 58.2 29.997 7.14 1.5 432 0.00 0.00 0.00 0.00
05/04/26 9:50:31 AM 38 4.0 11.0 56 65 64.3 58.4 29.995 7.14 1.3 443 0.00 0.00 0.00 0.00
05/04/26 9:51:26 AM 36 3.0 11.0 56 65 64.3 58.5 29.997 7.14 1.2 443 0.00 0.00 0.00 0.00
05/04/26 9:52:33 AM 34 9.0 11.0 56 64 64.3 58.6 29.995 7.14 1.2 313 0.00 0.00 0.00 0.00
05/04/26 9:53:25 AM 32 9.0 11.0 56 63 64.3 58.7 29.997 7.14 1.5 313 0.00 0.00 0.00 0.00
05/04/26 9:54:17 AM 37 4.0 11.0 56 65 64.4 58.8 29.996 7.14 1.5 313 0.00 0.00 0.00 0.00
05/04/26 9:55:27 AM 36 2.0 11.0 56 64 64.4 58.9 29.996 7.14 1.7 313 0.00 0.00 0.00 0.00
05/04/26 9:56:19 AM 32 3.0 11.0 56 65 64.4 58.9 30.000 7.14 1.9 575 0.00 0.00 0.00 0.00
05/04/26 9:57:29 AM 35 7.0 11.0 56 65 64.4 59.0 30.000 7.14 1.2 251 0.00 0.00 0.00 0.00
05/04/26 9:58:18 AM 36 6.0 11.0 56 65 64.4 59.1 30.000 7.14 1.0 181 0.00 0.00 0.00 0.00
05/04/26 9:59:31 AM 35 5.0 11.0 56 64 64.4 59.1 29.998 7.14 0.8 153 0.00 0.00 0.00 0.00
05/04/26 10:00:23 AM 36 7.0 11.0 56 63 64.4 59.0 29.996 7.14 0.8 141 0.00 0.00 0.00 0.00
05/04/26 10:01:33 AM 35 4.0 11.0 56 63 64.4 59.0 29.996 7.14 0.7 120 0.00 0.00 0.00 0.00
05/04/26 10:02:25 AM 35 5.0 11.0 56 63 64.5 58.9 29.991 7.14 0.7 109 0.00 0.00 0.00 0.00
05/04/26 10:03:35 AM 32 5.0 11.0 56 63 64.5 58.9 29.996 7.14 0.7 104 0.00 0.00 0.00 0.00
05/04/26 10:04:23 AM 34 12.0 12.0 56 63 64.5 58.8 29.998 7.14 0.8 109 0.00 0.00 0.00 0.00
05/04/26 10:05:18 AM 35 7.0 12.0 56 63 64.5 58.6 29.996 7.14 0.9 139 0.00 0.00 0.00 0.00
05/04/26 10:06:28 AM 36 7.0 12.0 56 63 64.5 58.5 29.999 7.14 1.0 176 0.00 0.00 0.00 0.00
05/04/26 10:07:20 AM 36 6.0 12.0 56 64 64.4 58.4 29.999 7.14 1.1 195 0.00 0.00 0.00 0.00
05/04/26 10:08:39 AM 36 5.0 12.0 56 64 64.4 58.3 29.999 7.14 1.1 221 0.00 0.00 0.00 0.00
05/04/26 10:09:31 AM 38 4.0 12.0 56 64 64.5 58.2 29.998 7.14 1.2 221 0.00 0.00 0.00 0.00
05/04/26 10:10:23 AM 35 3.0 12.0 56 64 64.5 58.2 30.001 7.14 1.2 232 0.00 0.00 0.00 0.00
05/04/26 10:11:15 AM 35 5.0 12.0 56 65 64.5 58.1 30.000 7.14 1.3 230 0.00 0.00 0.00 0.00
05/04/26 10:12:29 AM 34 4.0 12.0 56 65 64.5 58.1 30.003 7.14 1.3 236 0.00 0.00 0.00 0.00
05/04/26 10:13:21 AM 34 3.0 12.0 56 65 64.5 58.1 30.003 7.14 1.4 274 0.00 0.00 0.00 0.00
05/04/26 10:14:28 AM 38 9.0 12.0 56 65 64.5 58.1 30.000 7.14 1.6 285 0.00 0.00 0.00 0.00
05/04/26 10:15:23 AM 35 5.0 12.0 56 66 64.5 58.1 30.001 7.14 1.6 299 0.00 0.00 0.00 0.00
05/04/26 10:16:33 AM 36 3.0 12.0 56 66 64.5 58.2 30.003 7.14 1.7 315 0.00 0.00 0.00 0.00
05/04/26 10:17:24 AM 36 5.0 12.0 56 65 64.5 58.2 30.002 7.14 1.8 341 0.00 0.00 0.00 0.00
05/04/26 10:18:35 AM 38 5.0 12.0 56 65 64.5 58.2 30.003 7.14 1.9 353 0.00 0.00 0.00 0.00
05/04/26 10:19:23 AM 36 5.0 12.0 56 65 64.5 58.2 30.003 7.14 1.9 357 0.00 0.00 0.00 0.00
05/04/26 10:20:36 AM 35 5.0 12.0 56 65 64.5 58.2 30.003 7.14 2.0 381 0.00 0.00 0.00 0.00
05/04/26 10:21:28 AM 35 5.0 12.0 56 65 64.5 58.3 30.002 7.14 3.0 381 0.00 0.00 0.00 0.00
05/04/26 10:22:20 AM 38 4.0 12.0 56 66 64.5 58.4 30.001 7.14 3.4 381 0.00 0.00 0.00 0.00
05/04/26 10:23:30 AM 35 3.0 12.0 56 66 64.5 58.6 30.003 7.14 2.6 381 0.00 0.00 0.00 0.00
05/04/26 10:24:19 AM 37 9.0 12.0 56 65 64.5 58.9 30.000 7.14 2.1 381 0.00 0.00 0.00 0.00
05/04/26 10:25:32 AM 34 4.0 12.0 56 64 64.5 59.0 30.002 7.14 1.9 322 0.00 0.00 0.00 0.00
05/04/26 10:26:24 AM 37 4.0 12.0 56 63 64.6 59.1 30.002 7.14 2.0 322 0.00 0.00 0.00 0.00
05/04/26 10:27:34 AM 36 3.0 12.0 56 64 64.6 59.1 30.002 7.14 3.2 636 0.00 0.00 0.00 0.00
05/04/26 10:28:29 AM 38 5.0 12.0 56 64 64.6 59.2 30.003 7.14 2.6 555 0.00 0.00 0.00 0.00
05/04/26 10:29:18 AM 36 5.0 12.0 56 64 64.6 59.3 30.001 7.14 2.6 494 0.00 0.00 0.00 0.00
05/04/26 10:30:28 AM 35 4.0 12.0 56 63 64.6 59.4 30.000 7.14 2.9 494 0.00 0.00 0.00 0.00
05/04/26 10:31:20 AM 36 3.0 12.0 56 62 64.6 59.4 30.001 7.14 3.3 494 0.00 0.00 0.00 0.00
05/04/26 10:32:33 AM 36 5.0 15.0 56 62 64.6 59.5 30.000 7.14 3.9 494 0.00 0.00 0.00 0.00
05/04/26 10:33:25 AM 38 4.0 15.0 56 63 64.6 59.6 30.002 7.14 3.9 1088 0.00 0.00 0.00 0.00
05/04/26 10:34:17 AM 37 5.0 15.0 56 62 64.7 59.8 30.000 7.14 4.2 1088 0.00 0.00 0.00 0.00
05/04/26 10:35:24 AM 32 8.0 15.0 56 62 64.7 60.1 30.002 7.14 3.2 1088 0.00 0.00 0.00 0.00
05/04/26 10:36:16 AM 38 5.0 15.0 56 62 64.7 60.3 30.003 7.14 3.2 1088 0.00 0.00 0.00 0.00
05/04/26 10:37:26 AM 32 5.0 15.0 56 60 64.7 60.5 30.007 7.14 2.3 439 0.00 0.00 0.00 0.00
05/04/26 10:38:18 AM 36 11.0 15.0 56 60 64.7 60.5 30.004 7.14 2.3 413 0.00 0.00 0.00 0.00
05/04/26 10:39:34 AM 32 5.0 15.0 56 60 64.8 60.6 30.007 7.14 2.2 401 0.00 0.00 0.00 0.00
05/04/26 10:40:20 AM 34 5.0 15.0 56 60 64.9 60.6 30.008 7.14 2.2 401 0.00 0.00 0.00 0.00
05/04/26 10:41:33 AM 36 10.0 15.0 56 59 64.9 60.5 30.008 7.14 2.1 388 0.00 0.00 0.00 0.00
05/04/26 10:42:22 AM 34 8.0 15.0 56 59 64.8 60.5 30.009 7.14 2.1 380 0.00 0.00 0.00 0.00
05/04/26 10:43:35 AM 38 7.0 15.0 56 59 64.9 60.4 30.011 7.14 2.0 383 0.00 0.00 0.00 0.00
05/04/26 10:44:27 AM 35 7.0 15.0 56 59 64.9 60.3 30.009 7.14 2.0 350 0.00 0.00 0.00 0.00
05/04/26 10:45:19 AM 37 7.0 15.0 56 59 65.0 60.2 30.007 7.14 2.0 371 0.00 0.00 0.00 0.00
05/04/26 10:46:26 AM 38 5.0 15.0 56 59 65.0 60.2 30.009 7.14 2.1 381 0.00 0.00 0.00 0.00
05/04/26 10:47:18 AM 35 5.0 15.0 56 59 65.0 60.1 30.008 7.14 2.1 385 0.00 0.00 0.00 0.00
05/04/26 10:48:31 AM 36 7.0 15.0 56 58 65.0 60.0 30.009 7.14 2.1 387 0.00 0.00 0.00 0.00
05/04/26 10:49:23 AM 35 10.0 15.0 56 59 65.0 59.9 30.008 7.14 2.2 401 0.00 0.00 0.00 0.00
05/04/26 10:50:34 AM 38 5.0 15.0 56 59 65.1 59.8 30.009 7.14 2.2 390 0.00 0.00 0.00 0.00
05/04/26 10:51:22 AM 38 6.0 15.0 56 59 65.0 59.8 30.011 7.14 2.2 392 0.00 0.00 0.00 0.00
05/04/26 10:52:36 AM 34 9.0 15.0 56 59 65.1 59.8 30.010 7.14 2.0 373 0.00 0.00 0.00 0.00
05/04/26 10:53:28 AM 36 2.0 15.0 56 59 65.1 59.8 30.011 7.14 1.8 309 0.00 0.00 0.00 0.00
05/04/26 10:54:19 AM 35 3.0 15.0 56 59 65.1 59.8 30.010 7.14 2.1 371 0.00 0.00 0.00 0.00
05/04/26 10:55:33 AM 38 2.0 15.0 56 60 65.1 59.8 30.008 7.14 2.2 403 0.00 0.00 0.00 0.00
05/04/26 10:56:21 AM 38 2.0 15.0 56 59 65.2 59.8 30.009 7.14 2.2 403 0.00 0.00 0.00 0.00
05/04/26 10:57:31 AM 35 6.0 15.0 56 60 65.2 59.8 30.008 7.14 2.3 410 0.00 0.00 0.00 0.00
05/04/26 10:58:27 AM 35 9.0 15.0 56 60 65.1 59.9 30.008 7.14 2.3 397 0.00 0.00 0.00 0.00
05/04/26 10:59:15 AM 35 7.0 15.0 56 59 65.1 59.9 30.006 7.14 2.3 394 0.00 0.00 0.00 0.00
05/04/26 11:00:53 AM 36 4.0 15.0 56 59 65.2 60.0 30.005 7.14 2.2 394 0.00 0.00 0.00 0.00
05/04/26 11:01:23 AM 35 5.0 15.0 56 59 65.2 60.0 30.005 7.14 2.3 396 0.00 0.00 0.00 0.00
05/04/26 11:02:30 AM 36 4.0 15.0 56 58 65.2 60.0 30.006 7.14 2.3 403 0.00 0.00 0.00 0.00
05/04/26 11:03:22 AM 38 3.0 15.0 56 58 65.2 60.0 30.005 7.14 2.4 408 0.00 0.00 0.00 0.00
05/04/26 11:04:36 AM 32 3.0 15.0 56 57 65.2 60.0 30.008 7.14 2.4 408 0.00 0.00 0.00 0.00
05/04/26 11:05:28 AM 36 4.0 15.0 56 57 65.3 60.0 30.008 7.14 2.4 411 0.00 0.00 0.00 0.00
05/04/26 11:06:20 AM 32 6.0 15.0 56 57 65.3 60.1 30.011 7.14 2.4 406 0.00 0.00 0.00 0.00
05/04/26 11:07:30 AM 38 5.0 15.0 56 56 65.3 60.2 30.011 7.14 2.3 399 0.00 0.00 0.00 0.00
05/04/26 11:08:19 AM 35 2.0 15.0 56 55 65.4 60.3 30.012 7.14 2.3 399 0.00 0.00 0.00 0.00
05/04/26 11:09:32 AM 36 6.0 15.0 56 55 65.3 60.3 30.010 7.14 2.4 418 0.00 0.00 0.00 0.00
05/04/26 11:10:27 AM 31 6.0 15.0 56 55 65.3 60.3 30.009 7.14 2.6 418 0.00 0.00 0.00 0.00
05/04/26 11:11:15 AM 32 5.0 15.0 56 56 65.3 60.4 30.009 7.14 2.5 434 0.00 0.00 0.00 0.00
05/04/26 11:12:29 AM 35 3.0 15.0 56 56 65.4 60.5 30.008 7.14 2.6 417 0.00 0.00 0.00 0.00
05/04/26 11:13:18 AM 35 2.0 15.0 56 55 65.4 60.5 30.008 7.14 4.8 417 0.00 0.00 0.00 0.00
05/04/26 11:14:28 AM 36 3.0 15.0 56 57 65.4 60.9 30.009 7.14 2.7 417 0.00 0.00 0.00 0.00
05/04/26 11:15:23 AM 36 4.0 15.0 56 56 65.5 61.2 30.011 7.14 2.4 417 0.00 0.00 0.00 0.00
05/04/26 11:16:33 AM 38 4.0 15.0 56 55 65.5 61.5 30.013 7.14 2.3 367 0.00 0.00 0.00 0.00
05/04/26 11:17:25 AM 37 6.0 15.0 56 54 65.5 61.6 30.011 7.14 2.6 396 0.00 0.00 0.00 0.00
05/04/26 11:18:32 AM 34 5.0 15.0 56 54 65.5 61.7 30.013 7.14 3.1 396 0.00 0.00 0.00 0.00
05/04/26 11:19:27 AM 38 4.0 15.0 56 53 65.6 61.8 30.011 7.14 2.8 464 0.00 0.00 0.00 0.00
05/04/26 11:20:19 AM 32 3.0 15.0 56 54 65.6 61.9 30.009 7.14 3.3 464 0.00 0.00 0.00 0.00
05/04/26 11:21:32 AM 36 2.0 15.0 56 55 65.6 62.0 30.009 7.14 5.4 1058 0.00 0.00 0.00 0.00
05/04/26 11:22:24 AM 35 4.0 15.0 56 56 65.6 62.3 30.009 7.14 4.7 1058 0.00 0.00 0.00 0.00
05/04/26 11:23:31 AM 35 5.0 15.0 56 53 65.6 62.5 30.011 7.14 3.4 1058 0.00 0.00 0.00 0.00
05/04/26 11:24:23 AM 37 6.0 15.0 56 52 65.7 62.6 30.011 7.14 3.9 534 0.00 0.00 0.00 0.00
05/04/26 11:25:36 AM 35 6.0 15.0 56 52 65.7 62.5 30.006 7.14 3.2 589 0.00 0.00 0.00 0.00
05/04/26 11:26:28 AM 37 9.0 15.0 56 52 65.7 62.5 30.007 7.14 3.5 515 0.00 0.00 0.00 0.00
05/04/26 11:27:20 AM 36 6.0 15.0 56 52 65.7 62.4 30.007 7.14 3.4 515 0.00 0.00 0.00 0.00
05/04/26 11:28:33 AM 36 9.0 15.0 56 52 65.8 62.3 30.005 7.14 2.1 339 0.00 0.00 0.00 0.00
05/04/26 11:29:19 AM 36 4.0 15.0 56 53 65.8 62.2 30.008 7.14 2.1 297 0.00 0.00 0.00 0.00
05/04/26 11:30:32 AM 34 3.0 15.0 56 53 65.8 62.1 30.007 7.14 1.9 271 0.00 0.00 0.00 0.00
05/04/26 11:31:28 AM 32 3.0 15.0 56 52 65.9 62.0 30.008 7.14 1.6 251 0.00 0.00 0.00 0.00
05/04/26 11:32:20 AM 34 5.0 15.0 56 54 65.9 62.0 30.009 7.14 1.5 232 0.00 0.00 0.00 0.00
05/04/26 11:33:30 AM 36 6.0 15.0 56 53 65.9 61.8 30.010 7.14 1.4 216 0.00 0.00 0.00 0.00
05/04/26 11:34:37 AM 38 5.0 15.0 56 54 65.9 61.8 30.010 7.14 1.3 204 0.00 0.00 0.00 0.00
05/04/26 11:35:29 AM 34 8.0 15.0 56 54 65.9 61.7 30.012 7.14 1.2 192 0.00 0.00 0.00 0.00
05/04/26 11:36:21 AM 38 7.0 15.0 56 54 65.9 61.7 30.013 7.14 1.2 183 0.00 0.00 0.00 0.00
05/04/26 11:37:31 AM 36 5.0 15.0 56 53 66.0 61.4 30.012 7.14 1.2 176 0.00 0.00 0.00 0.00
05/04/26 11:38:23 AM 36 5.0 15.0 56 53 66.0 61.3 30.013 7.14 1.1 169 0.00 0.00 0.00 0.00
05/04/26 11:39:33 AM 35 6.0 15.0 56 55 65.9 61.2 30.012 7.14 1.2 169 0.00 0.00 0.00 0.00
05/04/26 11:40:25 AM 39 6.0 15.0 56 55 66.0 61.1 30.011 7.14 1.2 178 0.00 0.00 0.00 0.00
05/04/26 11:41:35 AM 38 7.0 15.0 56 55 65.9 60.9 30.013 7.14 1.4 199 0.00 0.00 0.00 0.00
05/04/26 11:42:27 AM 36 6.0 15.0 56 55 66.0 60.8 30.013 7.14 1.4 216 0.00 0.00 0.00 0.00
05/04/26 11:43:19 AM 34 6.0 15.0 56 55 66.0 60.8 30.013 7.14 1.5 237 0.00 0.00 0.00 0.00
05/04/26 11:44:33 AM 35 3.0 15.0 56 55 65.9 60.7 30.011 7.14 1.8 262 0.00 0.00 0.00 0.00
05/04/26 11:45:43 AM 38 3.0 15.0 56 55 66.0 60.6 30.011 7.14 1.8 287 0.00 0.00 0.00 0.00
05/04/26 11:46:35 AM 35 1.0 15.0 56 55 66.0 60.6 30.009 7.14 2.0 306 0.00 0.00 0.00 0.00
05/04/26 11:47:24 AM 35 2.0 15.0 56 55 66.0 60.5 30.008 7.14 1.9 327 0.00 0.00 0.00 0.00
05/04/26 11:48:19 AM 37 7.0 15.0 56 55 66.0 60.5 30.009 7.14 1.8 271 0.00 0.00 0.00 0.00
05/04/26 11:49:29 AM 35 5.0 15.0 56 55 66.0 60.5 30.010 7.14 1.6 253 0.00 0.00 0.00 0.00
05/04/26 11:50:21 AM 36 4.0 15.0 56 55 66.0 60.5 30.008 7.14 1.5 244 0.00 0.00 0.00 0.00
05/04/26 11:51:31 AM 34 5.0 15.0 56 55 66.0 60.5 30.004 7.14 1.5 230 0.00 0.00 0.00 0.00
05/04/26 11:52:23 AM 39 5.0 15.0 56 55 66.0 60.5 30.009 7.14 1.4 223 0.00 0.00 0.00 0.00
05/04/26 11:53:33 AM 38 3.0 15.0 56 55 66.0 60.5 30.009 7.14 1.3 214 0.00 0.00 0.00 0.00
05/04/26 11:54:25 AM 35 2.0 15.0 56 55 66.0 60.5 30.011 7.14 1.3 211 0.00 0.00 0.00 0.00
05/04/26 11:55:17 AM 34 3.0 15.0 56 55 66.0 60.5 30.009 7.14 1.4 214 0.00 0.00 0.00 0.00
05/04/26 11:56:24 AM 36 1.0 15.0 56 55 66.0 60.4 30.010 7.14 1.4 229 0.00 0.00 0.00 0.00
05/04/26 11:57:19 AM 34 6.0 15.0 56 55 66.0 60.4 30.009 7.14 1.4 229 0.00 0.00 0.00 0.00
05/04/26 11:58:30 AM 37 3.0 15.0 56 55 66.0 60.4 30.004 7.14 1.7 255 0.00 0.00 0.00 0.00
05/04/26 11:59:22 AM 36 1.0 15.0 56 55 66.0 60.3 30.005 7.14 1.7 271 0.00 0.00 0.00 0.00
05/04/26 12:00:38 PM 37 4.0 15.0 56 55 66.0 60.3 30.003 7.14 1.9 292 0.00 0.00 0.00 0.00
05/04/26 12:01:24 PM 37 4.0 15.0 56 56 66.0 60.4 30.003 7.14 2.0 327 0.00 0.00 0.00 0.00
05/04/26 12:02:37 PM 37 2.0 15.0 56 56 66.0 60.4 30.005 7.14 2.0 313 0.00 0.00 0.00 0.00
05/04/26 12:03:29 PM 35 3.0 15.0 56 56 66.0 60.5 30.005 7.14 1.9 295 0.00 0.00 0.00 0.00
05/04/26 12:04:18 PM 35 1.0 15.0 56 55 66.0 60.6 30.005 7.14 1.7 267 0.00 0.00 0.00 0.00
05/04/26 12:05:28 PM 34 1.0 15.0 56 55 66.1 60.6 30.007 7.14 1.5 237 0.00 0.00 0.00 0.00
05/04/26 12:06:23 PM 36 3.0 15.0 56 55 66.1 60.7 30.006 7.14 1.4 237 0.00 0.00 0.00 0.00
05/04/26 12:07:30 PM 35 2.0 15.0 56 55 66.0 60.7 30.009 7.14 1.3 197 0.00 0.00 0.00 0.00
05/04/26 12:08:34 PM 32 4.0 15.0 56 55 66.0 60.7 30.009 7.14 1.2 186 0.00 0.00 0.00 0.00
05/04/26 12:09:26 PM 37 5.0 15.0 56 55 66.0 60.7 30.008 7.14 1.2 179 0.00 0.00 0.00 0.00
05/04/26 12:10:18 PM 38 4.0 15.0 56 55 66.0 60.7 30.009 7.14 1.1 171 0.00 0.00 0.00 0.00
05/04/26 12:11:31 PM 35 2.0 15.0 56 55 66.0 60.7 30.012 7.14 1.1 165 0.00 0.00 0.00 0.00
05/04/26 12:12:17 PM 38 2.0 15.0 56 55 66.1 60.7 30.010 7.14 1.1 165 0.00 0.00 0.00 0.00
05/04/26 12:13:30 PM 34 6.0 15.0 56 55 66.1 60.8 30.007 7.14 1.2 167 0.00 0.00 0.00 0.00
05/04/26 12:14:22 PM 34 3.0 15.0 56 55 66.1 60.9 30.006 7.14 1.2 179 0.00 0.00 0.00 0.00
05/04/26 12:15:36 PM 35 4.0 15.0 56 55 66.1 61.0 30.007 7.14 1.5 211 0.00 0.00 0.00 0.00
05/04/26 12:16:25 PM 34 4.0 15.0 56 55 66.1 61.1 30.007 7.14 1.9 294 0.00 0.00 0.00 0.00
05/04/26 12:17:17 PM 38 7.0 15.0 56 53 66.1 61.2 30.002 7.14 1.8 262 0.00 0.00 0.00 0.00
05/04/26 12:18:24 PM 38 2.0 15.0 56 53 66.2 61.2 30.006 7.14 1.9 269 0.00 0.00 0.00 0.00
05/04/26 12:19:16 PM 38 4.0 15.0 56 53 66.2 61.3 30.006 7.14 1.9 257 0.00 0.00 0.00 0.00
05/04/26 12:20:29 PM 38 4.0 15.0 56 53 66.1 61.3 30.004 7.14 1.8 241 0.00 0.00 0.00 0.00
05/04/26 12:21:21 PM 32 5.0 15.0 56 53 66.2 61.3 29.999 7.14 1.7 223 0.00 0.00 0.00 0.00
05/04/26 12:22:34 PM 35 3.0 15.0 56 52 66.2 61.3 30.000 7.14 1.7 209 0.00 0.00 0.00 0.00
05/04/26 12:23:20 PM 38 1.0 15.0 56 52 66.2 61.4 30.000 7.14 1.6 199 0.00 0.00 0.00 0.00
05/04/26 12:24:33 PM 32 2.0 15.0 56 52 66.2 61.4 29.998 7.14 1.7 207 0.00 0.00 0.00 0.00
05/04/26 12:25:26 PM 34 4.0 15.0 56 52 66.2 61.5 29.999 7.14 1.8 207 0.00 0.00 0.00 0.00
05/04/26 12:26:17 PM 36 4.0 15.0 56 52 66.2 61.5 29.998 7.14 1.8 209 0.00 0.00 0.00 0.00
05/04/26 12:27:28 PM 36 4.0 15.0 56 52 66.3 61.5 29.999 7.14 1.8 232 0.00 0.00 0.00 0.00
05/04/26 12:28:17 PM 37 5.0 15.0 56 52 66.3 61.5 29.997 7.14 2.1 271 0.00 0.00 0.00 0.00
05/04/26 12:29:27 PM 37 6.0 15.0 56 52 66.3 61.5 29.997 7.14 5.4 334 0.00 0.00 0.00 0.00
05/04/26 12:30:22 PM 35 4.0 15.0 56 52 66.3 61.5 29.994 7.14 5.7 334 0.00 0.00 0.00 0.00
05/04/26 12:31:32 PM 37 5.0 15.0 56 52 66.3 61.6 29.992 7.14 5.7 1127 0.00 0.00 0.00 0.00
05/04/26 12:32:24 PM 34 5.0 15.0 56 53 66.3 61.8 29.993 7.14 5.7 1081 0.00 0.00 0.00 0.00
05/04/26 12:33:31 PM 38 9.0 15.0 56 54 66.4 62.3 29.995 7.14 4.5 1151 0.00 0.00 0.00 0.00
05/04/26 12:34:23 PM 35 6.0 15.0 56 54 66.4 62.6 29.997 7.14 6.2 1169 0.00 0.00 0.00 0.00
05/04/26 12:35:36 PM 35 5.0 15.0 56 51 66.4 63.0 29.995 7.14 6.2 1181 0.00 0.00 0.00 0.00
05/04/26 12:36:28 PM 36 7.0 15.0 56 50 66.5 63.4 30.001 7.14 6.3 1187 0.00 0.00 0.00 0.00
05/04/26 12:37:23 PM 35 7.0 15.0 56 51 66.5 63.6 29.999 7.14 6.2 1172 0.00 0.00 0.00 0.00
05/04/26 12:38:36 PM 32 10.0 15.0 56 49 66.5 64.0 30.001 7.14 6.3 1160 0.00 0.00 0.00 0.00
05/04/26 12:39:22 PM 36 5.0 15.0 56 47 66.5 64.1 30.001 7.14 6.3 1160 0.00 0.00 0.00 0.00
05/04/26 12:40:35 PM 37 6.0 15.0 56 48 66.6 64.4 29.997 7.14 6.3 1160 0.00 0.00 0.00 0.00
05/04/26 12:41:27 PM 36 6.0 15.0 56 48 66.6 64.5 29.996 7.14 6.5 1257 0.00 0.00 0.00 0.00
05/04/26 12:42:38 PM 36 17.0 19.0 56 49 66.6 64.7 29.998 7.14 6.6 1278 0.00 0.00 0.00 0.00
05/04/26 12:43:29 PM 36 10.0 19.0 56 48 66.6 64.8 29.999 7.14 4.5 696 0.00 0.00 0.00 0.00
05/04/26 12:44:15 PM 35 13.0 19.0 56 47 66.8 64.9 29.998 7.14 4.5 696 0.00 0.00 0.00 0.00
05/04/26 12:45:32 PM 32 8.0 19.0 56 47 66.8 65.0 29.997 7.14 3.9 527 0.00 0.00 0.00 0.00
05/04/26 12:46:21 PM 37 10.0 19.0 56 47 66.8 65.0 29.997 7.14 3.8 599 0.00 0.00 0.00 0.00
05/04/26 12:47:31 PM 35 13.0 19.0 56 47 66.8 64.9 29.996 7.14 4.4 599 0.00 0.00 0.00 0.00
05/04/26 12:48:26 PM 35 7.0 19.0 56 47 66.8 64.9 29.998 7.14 4.5 599 0.00 0.00 0.00 0.00
05/04/26 12:49:33 PM 38 7.0 19.0 56 48 67.0 64.9 29.997 7.14 6.5 599 0.00 0.00 0.00 0.00
05/04/26 12:50:25 PM 38 12.0 19.0 56 48 67.0 64.9 29.998 7.14 6.4 1211 0.00 0.00 0.00 0.00
05/04/26 12:51:38 PM 35 4.0 19.0 56 48 67.0 65.0 30.003 7.14 4.1 1211 0.00 0.00 0.00 0.00
05/04/26 12:52:27 PM 35 5.0 19.0 56 46 67.1 65.0 30.002 7.14 4.1 1255 0.00 0.00 0.00 0.00
05/04/26 12:53:19 PM 37 7.0 19.0 56 46 67.1 65.0 30.002 7.14 6.2 1255 0.00 0.00 0.00 0.00
05/04/26 12:54:32 PM 32 15.0 19.0 56 46 67.1 65.0 30.001 7.14 3.7 1255 0.00 0.00 0.00 0.00
05/04/26 12:55:22 PM 38 11.0 19.0 56 45 67.1 64.9 30.001 7.14 5.6 1255 0.00 0.00 0.00 0.00
05/04/26 12:56:35 PM 35 10.0 19.0 56 45 67.1 64.9 29.997 7.14 6.4 1183 0.00 0.00 0.00 0.00
05/04/26 12:57:27 PM 38 11.0 19.0 56 45 67.1 64.9 29.996 7.14 6.5 1183 0.00 0.00 0.00 0.00
05/04/26 12:58:19 PM 37 5.0 19.0 56 46 67.2 64.9 29.996 7.14 5.0 1183 0.00 0.00 0.00 0.00
05/04/26 12:59:32 PM 36 7.0 19.0 56 45 67.2 65.0 30.001 7.14 2.7 265 0.00 0.00 0.00 0.00
05/04/26 1:00:21 PM 36 10.0 19.0 56 44 67.3 65.0 29.997 7.14 2.7 269 0.00 0.00 0.00 0.00
05/04/26 1:01:34 PM 34 10.0 19.0 56 44 67.2 64.9 29.999 7.14 2.5 260 0.00 0.00 0.00 0.00
05/04/26 1:02:23 PM 37 12.0 19.0 56 45 67.3 64.9 29.999 7.14 2.6 276 0.00 0.00 0.00 0.00
05/04/26 1:03:33 PM 35 7.0 19.0 56 45 67.3 64.7 29.999 7.14 2.6 276 0.00 0.00 0.00 0.00
05/04/26 1:04:25 PM 36 10.0 19.0 56 45 67.3 64.6 29.994 7.14 6.1 1116 0.00 0.00 0.00 0.00
05/04/26 1:05:20 PM 35 5.0 19.0 56 46 67.3 64.6 29.995 7.14 6.3 1153 0.00 0.00 0.00 0.00
05/04/26 1:06:27 PM 38 7.0 19.0 56 45 67.3 64.5 29.992 7.14 6.2 752 0.00 0.00 0.00 0.00
05/04/26 1:07:19 PM 36 10.0 19.0 56 47 67.3 64.6 29.994 7.14 3.1 752 0.00 0.00 0.00 0.00
05/04/26 1:08:32 PM 36 7.0 19.0 56 45 67.4 64.7 29.993 7.14 3.0 348 0.00 0.00 0.00 0.00
05/04/26 1:09:24 PM 38 4.0 19.0 56 45 67.4 64.7 29.992 7.14 3.2 367 0.00 0.00 0.00 0.00
05/04/26 1:10:16 PM 34 17.0 19.0 56 47 67.4 64.7 29.992 7.14 3.2 411 0.00 0.00 0.00 0.00
05/04/26 1:11:24 PM 34 12.0 19.0 56 46 67.5 64.9 29.993 7.14 6.0 411 0.00 0.00 0.00 0.00
05/04/26 1:12:16 PM 37 17.0 19.0 56 47 67.4 64.9 29.987 7.14 3.3 411 0.00 0.00 0.00 0.00
05/04/26 1:13:29 PM 34 12.0 19.0 56 46 67.5 65.0 29.988 7.14 3.0 411 0.00 0.00 0.00 0.00
05/04/26 1:14:21 PM 34 11.0 19.0 56 46 67.5 64.9 29.989 7.14 3.0 366 0.00 0.00 0.00 0.00
05/04/26 1:15:37 PM 32 18.0 19.0 56 46 67.5 64.8 29.990 7.14 3.0 369 0.00 0.00 0.00 0.00
05/04/26 1:16:23 PM 36 6.0 19.0 56 46 67.5 64.6 29.990 7.14 3.1 392 0.00 0.00 0.00 0.00
05/04/26 1:17:15 PM 36 10.0 19.0 56 46 67.5 64.5 29.993 7.14 3.0 392 0.00 0.00 0.00 0.00
05/04/26 1:18:29 PM 31 8.0 19.0 56 46 67.6 64.4 29.994 7.14 3.9 392 0.00 0.00 0.00 0.00
05/04/26 1:19:21 PM 36 10.0 19.0 56 46 67.6 64.3 29.992 7.14 3.4 392 0.00 0.00 0.00 0.00
05/04/26 1:20:34 PM 35 11.0 19.0 56 46 67.6 64.2 29.996 7.14 4.5 504 0.00 0.00 0.00 0.00
05/04/26 1:21:26 PM 30 6.0 19.0 56 45 67.6 64.2 29.997 7.14 3.6 504 0.00 0.00 0.00 0.00
05/04/26 1:22:33 PM 35 2.0 19.0 56 45 67.6 64.1 29.996 7.14 4.1 571 0.00 0.00 0.00 0.00
05/04/26 1:23:25 PM 36 7.0 19.0 56 47 67.6 64.2 29.996 7.14 6.0 571 0.00 0.00 0.00 0.00
05/04/26 1:24:17 PM 36 11.0 19.0 56 47 67.6 64.4 29.997 7.14 6.1 1276 0.00 0.00 0.00 0.00
05/04/26 1:25:30 PM 36 16.0 19.0 56 47 67.7 64.8 29.997 7.14 3.4 387 0.00 0.00 0.00 0.00
05/04/26 1:26:19 PM 34 12.0 19.0 56 46 67.7 64.9 29.995 7.14 3.2 387 0.00 0.00 0.00 0.00
05/04/26 1:27:29 PM 37 10.0 19.0 56 46 67.7 64.9 29.998 7.14 3.2 404 0.00 0.00 0.00 0.00
05/04/26 1:28:21 PM 36 13.0 19.0 56 46 67.7 64.9 29.996 7.14 3.2 404 0.00 0.00 0.00 0.00
05/04/26 1:29:31 PM 38 6.0 19.0 56 46 67.7 64.8 29.996 7.14 3.3 531 0.00 0.00 0.00 0.00
05/04/26 1:30:47 PM 34 11.0 19.0 56 46 67.7 64.7 29.996 7.14 3.4 522 0.00 0.00 0.00 0.00
05/04/26 1:31:19 PM 36 6.0 19.0 56 45 67.8 64.7 30.000 7.14 3.2 455 0.00 0.00 0.00 0.00
05/04/26 1:32:29 PM 34 8.0 19.0 56 45 67.8 64.6 30.000 7.14 3.7 455 0.00 0.00 0.00 0.00
05/04/26 1:33:18 PM 32 5.0 19.0 56 45 67.8 64.6 29.998 7.14 3.1 455 0.00 0.00 0.00 0.00
05/04/26 1:34:31 PM 35 9.0 19.0 56 46 67.9 64.7 29.996 7.14 2.6 455 0.00 0.00 0.00 0.00
05/04/26 1:35:23 PM 36 10.0 19.0 56 46 67.9 64.7 29.994 7.14 5.2 455 0.00 0.00 0.00 0.00
05/04/26 1:36:36 PM 35 5.0 19.0 56 47 67.9 64.8 29.992 7.14 3.5 455 0.00 0.00 0.00 0.00
05/04/26 1:37:28 PM 38 10.0 19.0 56 46 67.9 64.9 29.990 7.14 2.4 455 0.00 0.00 0.00 0.00
05/04/26 1:38:17 PM 37 3.0 19.0 56 47 67.9 64.9 29.994 7.14 2.3 343 0.00 0.00 0.00 0.00
05/04/26 1:39:27 PM 36 7.0 19.0 56 46 67.9 65.0 29.990 7.14 2.3 329 0.00 0.00 0.00 0.00
05/04/26 1:40:22 PM 37 11.0 19.0 56 46 67.9 65.0 29.995 7.14 2.2 330 0.00 0.00 0.00 0.00
05/04/26 1:41:36 PM 34 8.0 19.0 56 46 67.9 65.0 29.994 7.14 2.2 297 0.00 0.00 0.00 0.00
05/04/26 1:42:28 PM 38 7.0 19.0 56 46 67.9 64.9 29.994 7.14 1.9 285 0.00 0.00 0.00 0.00
05/04/26 1:43:20 PM 36 12.0 19.0 56 46 68.0 64.8 29.992 7.14 1.9 297 0.00 0.00 0.00 0.00
05/04/26 1:44:27 PM 34 10.0 19.0 56 46 68.0 64.8 29.993 7.14 2.1 315 0.00 0.00 0.00 0.00
05/04/26 1:45:40 PM 38 10.0 19.0 56 46 67.9 64.8 29.989 7.14 2.1 332 0.00 0.00 0.00 0.00
05/04/26 1:46:32 PM 38 4.0 19.0 56 46 67.9 64.6 29.990 7.14 2.2 350 0.00 0.00 0.00 0.00
05/04/26 1:47:24 PM 38 7.0 19.0 56 47 68.0 64.6 29.990 7.14 2.5 376 0.00 0.00 0.00 0.00
05/04/26 1:48:37 PM 34 13.0 19.0 56 47 68.0 64.5 29.993 7.14 2.6 399 0.00 0.00 0.00 0.00
05/04/26 1:49:26 PM 37 12.0 19.0 56 47 68.0 64.5 29.994 7.14 2.6 432 0.00 0.00 0.00 0.00
05/04/26 1:50:18 PM 38 12.0 19.0 56 48 68.0 64.5 29.993 7.14 3.2 512 0.00 0.00 0.00 0.00
05/04/26 1:51:32 PM 35 6.0 19.0 56 48 68.0 64.4 29.993 7.14 3.1 490 0.00 0.00 0.00 0.00
05/04/26 1:52:24 PM 34 2.0 19.0 56 47 68.1 64.4 29.996 7.14 3.2 503 0.00 0.00 0.00 0.00
05/04/26 1:53:34 PM 35 9.0 19.0 56 48 68.0 64.4 29.993 7.14 3.4 519 0.00 0.00 0.00 0.00
05/04/26 1:54:26 PM 38 5.0 19.0 56 48 68.1 64.5 29.991 7.14 3.4 701 0.00 0.00 0.00 0.00
05/04/26 1:55:33 PM 36 3.0 19.0 56 47 68.1 64.6 29.990 7.14 3.6 701 0.00 0.00 0.00 0.00
05/04/26 1:56:25 PM 36 10.0 19.0 56 47 68.1 64.6 29.987 7.14 3.4 701 0.00 0.00 0.00 0.00
05/04/26 1:57:17 PM 37 15.0 24.0 56 48 68.1 64.7 29.987 7.14 3.6 701 0.00 0.00 0.00 0.00
05/04/26 1:58:31 PM 38 3.0 24.0 56 48 68.1 64.8 29.988 7.14 3.3 1304 0.00 0.00 0.00 0.00
05/04/26 1:59:23 PM 32 9.0 24.0 56 48 68.1 64.9 29.986 7.14 3.3 1304 0.00 0.00 0.00 0.00
05/04/26 2:00:51 PM 35 5.0 24.0 56 47 68.1 65.0 29.989 7.14 5.5 1304 0.00 0.00 0.00 0.00
05/04/26 2:01:19 PM 36 3.0 24.0 56 46 68.1 65.0 29.984 7.14 3.7 682 0.00 0.00 0.00 0.00
05/04/26 2:02:32 PM 36 6.0 24.0 56 47 68.1 65.1 29.984 7.14 3.7 682 0.00 0.00 0.00 0.00
05/04/26 2:03:24 PM 36 4.0 24.0 56 46 68.1 65.2 29.984 7.14 3.1 401 0.00 0.00 0.00 0.00
05/04/26 2:04:16 PM 38 5.0 24.0 56 46 68.1 65.2 29.986 7.14 5.1 401 0.00 0.00 0.00 0.00
05/04/26 2:05:29 PM 34 8.0 24.0 56 47 68.2 65.3 29.987 7.14 5.5 401 0.00 0.00 0.00 0.00
05/04/26 2:06:18 PM 38 10.0 24.0 56 47 68.2 65.4 29.987 7.14 5.5 401 0.00 0.00 0.00 0.00
05/04/26 2:07:28 PM 36 10.0 24.0 56 47 68.2 65.6 29.986 7.14 5.4 1223 0.00 0.00 0.00 0.00
05/04/26 2:08:20 PM 35 15.0 24.0 56 49 68.2 65.8 29.985 7.14 5.7 1229 0.00 0.00 0.00 0.00
05/04/26 2:09:24 PM 34 10.0 24.0 56 48 68.2 66.1 29.984 7.14 5.6 1211 0.00 0.00 0.00 0.00
05/04/26 2:10:17 PM 36 7.0 24.0 56 47 68.3 66.2 29.982 7.14 5.7 1211 0.00 0.00 0.00 0.00
05/04/26 2:11:24 PM 37 6.0 24.0 56 48 68.2 66.5 29.985 7.14 5.6 1204 0.00 0.00 0.00 0.00
05/04/26 2:12:16 PM 36 5.0 24.0 56 47 68.3 66.7 29.983 7.14 5.7 1204 0.00 0.00 0.00 0.00
05/04/26 2:13:29 PM 36 11.0 24.0 56 48 68.3 67.1 29.985 7.14 5.4 1111 0.00 0.00 0.00 0.00
05/04/26 2:14:21 PM 36 13.0 24.0 56 45 68.3 67.3 29.987 7.14 5.4 1111 0.00 0.00 0.00 0.00
05/04/26 2:15:34 PM 36 9.0 24.0 56 44 68.3 67.4 29.990 7.14 5.7 1111 0.00 0.00 0.00 0.00
05/04/26 2:16:23 PM 38 4.0 24.0 56 44 68.3 67.4 29.986 7.14 5.4 1157 0.00 0.00 0.00 0.00
05/04/26 2:17:34 PM 35 6.0 24.0 56 44 68.4 67.4 29.987 7.14 5.1 1157 0.00 0.00 0.00 0.00
05/04/26 2:18:26 PM 38 4.0 24.0 56 44 68.4 67.5 29.987 7.14 5.1 1157 0.00 0.00 0.00 0.00
05/04/26 2:19:18 PM 32 10.0 24.0 56 43 68.4 67.6 29.985 7.14 5.2 1151 0.00 0.00 0.00 0.00
05/04/26 2:20:28 PM 38 16.0 24.0 56 46 68.4 67.7 29.986 7.14 5.2 1216 0.00 0.00 0.00 0.00
05/04/26 2:21:23 PM 30 9.0 24.0 56 45 68.4 67.8 29.987 7.14 5.1 1209 0.00 0.00 0.00 0.00
05/04/26 2:22:30 PM 32 8.0 24.0 56 45 68.4 67.8 29.986 7.14 3.3 1209 0.00 0.00 0.00 0.00
05/04/26 2:23:22 PM 38 5.0 24.0 56 44 68.5 67.8 29.984 7.14 3.8 1209 0.00 0.00 0.00 0.00
05/04/26 2:24:35 PM 34 10.0 24.0 56 44 68.6 67.7 29.986 7.14 2.3 1209 0.00 0.00 0.00 0.00
05/04/26 2:25:27 PM 36 7.0 24.0 56 44 68.5 67.5 29.985 7.14 2.3 1209 0.00 0.00 0.00 0.00
05/04/26 2:26:20 PM 37 12.0 24.0 56 44 68.6 67.4 29.984 7.14 2.2 371 0.00 0.00 0.00 0.00
05/04/26 2:27:27 PM 35 9.0 24.0 56 45 68.6 67.1 29.986 7.14 2.1 343 0.00 0.00 0.00 0.00
05/04/26 2:28:19 PM 38 10.0 24.0 56 46 68.6 67.0 29.989 7.14 2.1 339 0.00 0.00 0.00 0.00
05/04/26 2:29:32 PM 31 3.0 24.0 56 45 68.6 66.7 29.989 7.14 2.0 334 0.00 0.00 0.00 0.00
05/04/26 2:30:45 PM 36 10.0 24.0 56 46 68.7 66.6 29.989 7.14 2.0 329 0.00 0.00 0.00 0.00
05/04/26 2:31:16 PM 31 10.0 24.0 56 46 68.6 66.4 29.989 7.14 1.9 323 0.00 0.00 0.00 0.00
05/04/26 2:32:29 PM 38 14.0 24.0 56 46 68.7 66.2 29.989 7.14 1.9 313 0.00 0.00 0.00 0.00
05/04/26 2:33:36 PM 31 10.0 24.0 56 46 68.7 65.9 29.991 7.14 1.9 302 0.00 0.00 0.00 0.00
05/04/26 2:34:28 PM 32 8.0 24.0 56 47 68.7 65.6 29.990 7.14 1.8 299 0.00 0.00 0.00 0.00
05/04/26 2:35:21 PM 38 10.0 24.0 56 47 68.7 65.4 29.990 7.14 1.7 290 0.00 0.00 0.00 0.00
05/04/26 2:36:34 PM 34 6.0 24.0 56 47 68.7 65.2 29.992 7.14 1.7 281 0.00 0.00 0.00 0.00
05/04/26 2:37:26 PM 38 12.0 24.0 56 48 68.7 64.9 29.989 7.14 1.6 272 0.00 0.00 0.00 0.00
05/04/26 2:38:18 PM 36 7.0 24.0 56 48 68.7 64.8 29.990 7.14 1.6 269 0.00 0.00 0.00 0.00
05/04/26 2:39:25 PM 35 5.0 24.0 56 48 68.7 64.6 29.989 7.14 1.6 262 0.00 0.00 0.00 0.00
05/04/26 2:40:17 PM 32 4.0 24.0 56 48 68.7 64.5 29.987 7.14 1.5 253 0.00 0.00 0.00 0.00
05/04/26 2:41:30 PM 35 17.0 24.0 56 48 68.6 64.4 29.989 7.14 1.5 237 0.00 0.00 0.00 0.00
05/04/26 2:42:22 PM 38 14.0 24.0 56 49 68.6 64.3 29.986 7.14 1.4 220 0.00 0.00 0.00 0.00
05/04/26 2:43:32 PM 38 9.0 24.0 56 49 68.6 64.2 29.985 7.14 1.3 214 0.00 0.00 0.00 0.00
05/04/26 2:44:22 PM 34 9.0 24.0 56 49 68.6 64.1 29.983 7.14 1.3 218 0.00 0.00 0.00 0.00
05/04/26 2:45:35 PM 35 9.0 24.0 56 49 68.6 64.0 29.984 7.14 1.2 211 0.00 0.00 0.00 0.00
05/04/26 2:46:27 PM 32 11.0 24.0 56 49 68.6 64.0 29.984 7.14 1.1 200 0.00 0.00 0.00 0.00
05/04/26 2:47:16 PM 37 9.0 24.0 56 50 68.6 63.9 29.982 7.14 1.1 183 0.00 0.00 0.00 0.00
05/04/26 2:48:29 PM 34 8.0 24.0 56 50 68.6 63.8 29.978 7.14 1.0 178 0.00 0.00 0.00 0.00
05/04/26 2:49:16 PM 32 11.0 24.0 56 51 68.6 63.7 29.979 7.14 1.0 172 0.00 0.00 0.00 0.00
05/04/26 2:50:29 PM 37 14.0 24.0 56 50 68.6 63.6 29.978 7.14 0.9 165 0.00 0.00 0.00 0.00
05/04/26 2:51:22 PM 36 11.0 24.0 56 50 68.6 63.5 29.979 7.14 0.9 162 0.00 0.00 0.00 0.00
05/04/26 2:52:32 PM 36 9.0 24.0 56 50 68.6 63.4 29.980 7.14 0.8 151 0.00 0.00 0.00 0.00
05/04/26 2:53:24 PM 35 12.0 24.0 56 50 68.5 63.3 29.979 7.14 0.8 135 0.00 0.00 0.00 0.00
05/04/26 2:54:31 PM 34 4.0 24.0 56 51 68.5 63.2 29.978 7.14 0.8 153 0.00 0.00 0.00 0.00
05/04/26 2:55:24 PM 38 10.0 24.0 56 51 68.5 63.1 29.978 7.14 0.8 153 0.00 0.00 0.00 0.00
05/04/26 2:56:37 PM 34 8.0 24.0 56 50 68.4 63.0 29.976 7.14 0.9 155 0.00 0.00 0.00 0.00
05/04/26 2:57:30 PM 38 7.0 24.0 56 50 68.4 63.0 29.977 7.14 0.9 163 0.00 0.00 0.00 0.00
05/04/26 2:58:22 PM 35 5.0 24.0 56 50 68.4 62.9 29.977 7.14 0.9 167 0.00 0.00 0.00 0.00
05/04/26 2:59:32 PM 38 4.0 24.0 56 50 68.4 62.8 29.978 7.14 0.9 174 0.00 0.00 0.00 0.00
05/04/26 3:00:18 PM 34 10.0 24.0 56 51 68.3 62.8 29.977 7.14 0.9 181 0.00 0.00 0.00 0.00
05/04/26 3:01:32 PM 37 10.0 24.0 56 51 68.3 62.8 29.976 7.14 1.0 188 0.00 0.00 0.00 0.00
05/04/26 3:02:21 PM 32 5.0 24.0 56 51 68.3 62.8 29.973 7.14 1.0 188 0.00 0.00 0.00 0.00
05/04/26 3:03:34 PM 39 6.0 24.0 56 52 68.3 62.8 29.975 7.14 1.0 193 0.00 0.00 0.00 0.00
05/04/26 3:04:27 PM 38 7.0 24.0 56 52 68.3 62.8 29.976 7.14 1.1 220 0.00 0.00 0.00 0.00
05/04/26 3:05:34 PM 32 3.0 24.0 56 52 68.3 62.8 29.978 7.14 1.2 241 0.00 0.00 0.00 0.00
05/04/26 3:06:26 PM 37 5.0 24.0 56 52 68.3 62.8 29.975 7.14 1.3 250 0.00 0.00 0.00 0.00
05/04/26 3:07:18 PM 34 5.0 24.0 56 53 68.2 62.8 29.976 7.14 1.3 250 0.00 0.00 0.00 0.00
05/04/26 3:08:32 PM 38 6.0 24.0 56 53 68.3 62.8 29.974 7.14 1.4 272 0.00 0.00 0.00 0.00
05/04/26 3:09:21 PM 35 10.0 24.0 56 53 68.2 62.9 29.976 7.14 1.4 285 0.00 0.00 0.00 0.00
05/04/26 3:10:31 PM 38 11.0 24.0 56 52 68.2 63.0 29.976 7.14 1.5 311 0.00 0.00 0.00 0.00
05/04/26 3:11:24 PM 32 8.0 24.0 56 52 68.2 63.0 29.974 7.14 1.6 311 0.00 0.00 0.00 0.00
05/04/26 3:12:34 PM 37 10.0 24.0 56 52 68.3 63.0 29.978 7.14 1.6 323 0.00 0.00 0.00 0.00
05/04/26 3:13:26 PM 36 4.0 24.0 56 53 68.3 63.0 29.975 7.14 1.6 323 0.00 0.00 0.00 0.00
05/04/26 3:14:19 PM 34 9.0 24.0 56 53 68.2 63.0 29.972 7.14 1.6 311 0.00 0.00 0.00 0.00
05/04/26 3:15:32 PM 39 5.0 24.0 56 53 68.3 63.0 29.972 7.14 1.6 309 0.00 0.00 0.00 0.00
05/04/26 3:16:18 PM 35 3.0 24.0 56 52 68.3 63.1 29.974 7.14 1.6 309 0.00 0.00 0.00 0.00
05/04/26 3:17:32 PM 36 7.0 24.0 56 52 68.3 63.1 29.968 7.14 1.5 309 0.00 0.00 0.00 0.00
05/04/26 3:18:21 PM 38 6.0 24.0 56 52 68.3 63.1 29.971 7.14 1.5 301 0.00 0.00 0.00 0.00
05/04/26 3:19:34 PM 36 4.0 24.0 56 53 68.3 63.2 29.972 7.14 1.4 283 0.00 0.00 0.00 0.00
05/04/26 3:20:27 PM 38 7.0 24.0 56 53 68.3 63.2 29.970 7.14 1.3 255 0.00 0.00 0.00 0.00
05/04/26 3:21:34 PM 37 10.0 24.0 56 52 68.3 63.3 29.969 7.14 1.4 287 0.00 0.00 0.00 0.00
05/04/26 3:22:26 PM 35 9.0 24.0 56 52 68.3 63.3 29.970 7.14 1.6 341 0.00 0.00 0.00 0.00
05/04/26 3:23:37 PM 35 4.0 24.0 56 52 68.3 63.4 29.971 7.14 1.8 431 0.00 0.00 0.00 0.00
05/04/26 3:24:26 PM 35 5.0 24.0 56 52 68.3 63.4 29.969 7.14 2.0 431 0.00 0.00 0.00 0.00
05/04/26 3:25:18 PM 35 7.0 24.0 56 53 68.4 63.5 29.969 7.14 2.0 457 0.00 0.00 0.00 0.00
05/04/26 3:26:26 PM 32 4.0 24.0 56 52 68.4 63.6 29.969 7.14 2.3 494 0.00 0.00 0.00 0.00
05/04/26 3:27:21 PM 38 10.0 24.0 56 53 68.4 63.7 29.968 7.14 2.3 494 0.00 0.00 0.00 0.00
05/04/26 3:28:31 PM 38 7.0 24.0 56 53 68.4 63.9 29.969 7.14 1.9 376 0.00 0.00 0.00 0.00
05/04/26 3:29:27 PM 35 7.0 24.0 56 53 68.4 64.0 29.970 7.14 1.7 350 0.00 0.00 0.00 0.00
05/04/26 3:30:19 PM 35 9.0 24.0 56 52 68.4 64.1 29.968 7.14 1.7 301 0.00 0.00 0.00 0.00
05/04/26 3:31:29 PM 36 3.0 24.0 56 51 68.4 64.1 29.966 7.14 1.5 285 0.00 0.00 0.00 0.00
05/04/26 3:32:19 PM 34 3.0 24.0 56 52 68.4 64.1 29.968 7.14 1.4 262 0.00 0.00 0.00 0.00
05/04/26 3:33:29 PM 34 2.0 24.0 56 51 68.4 64.1 29.965 7.14 1.4 267 0.00 0.00 0.00 0.00
05/04/26 3:34:21 PM 34 5.0 24.0 56 51 68.4 64.1 29.966 7.14 1.3 264 0.00 0.00 0.00 0.00
05/04/26 3:35:32 PM 38 2.0 24.0 56 51 68.4 64.1 29.964 7.14 1.4 279 0.00 0.00 0.00 0.00
05/04/26 3:36:24 PM 36 4.0 24.0 56 51 68.4 64.1 29.966 7.14 1.4 332 0.00 0.00 0.00 0.00
05/04/26 3:37:31 PM 36 5.0 24.0 56 51 68.4 64.1 29.965 7.14 1.6 380 0.00 0.00 0.00 0.00
05/04/26 3:38:27 PM 38 6.0 24.0 56 50 68.4 64.1 29.964 7.14 1.8 439 0.00 0.00 0.00 0.00
05/04/26 3:39:16 PM 38 12.0 24.0 56 50 68.4 64.1 29.962 7.14 2.0 513 0.00 0.00 0.00 0.00
05/04/26 3:40:29 PM 36 5.0 24.0 56 51 68.4 64.2 29.964 7.14 1.9 360 0.00 0.00 0.00 0.00
05/04/26 3:41:22 PM 38 5.0 24.0 56 51 68.4 64.3 29.961 7.14 1.8 360 0.00 0.00 0.00 0.00
05/04/26 3:42:29 PM 32 8.0 24.0 56 51 68.4 64.4 29.962 7.14 2.1 406 0.00 0.00 0.00 0.00
05/04/26 3:43:19 PM 39 5.0 24.0 56 51 68.5 64.5 29.963 7.14 1.8 406 0.00 0.00 0.00 0.00
05/04/26 3:44:32 PM 37 11.0 24.0 56 51 68.5 64.7 29.966 7.14 2.2 497 0.00 0.00 0.00 0.00
05/04/26 3:45:45 PM 36 11.0 24.0 56 50 68.5 64.7 29.964 7.14 2.2 418 0.00 0.00 0.00 0.00
05/04/26 3:46:35 PM 38 6.0 24.0 56 50 68.5 64.8 29.960 7.14 1.7 348 0.00 0.00 0.00 0.00
05/04/26 3:47:27 PM 31 2.0 24.0 56 50 68.5 64.8 29.964 7.14 1.8 364 0.00 0.00 0.00 0.00
05/04/26 3:48:35 PM 35 3.0 24.0 56 51 68.5 64.9 29.959 7.14 1.9 401 0.00 0.00 0.00 0.00
05/04/26 3:49:27 PM 38 4.0 24.0 56 51 68.6 65.0 29.959 7.14 2.4 401 0.00 0.00 0.00 0.00
05/04/26 3:50:19 PM 34 4.0 24.0 56 50 68.5 65.1 29.960 7.14 2.4 715 0.00 0.00 0.00 0.00
05/04/26 3:51:29 PM 37 10.0 24.0 56 49 68.5 65.2 29.958 7.14 2.4 715 0.00 0.00 0.00 0.00
05/04/26 3:52:22 PM 36 11.0 24.0 56 48 68.6 65.3 29.959 7.14 2.7 768 0.00 0.00 0.00 0.00
05/04/26 3:53:29 PM 36 3.0 24.0 56 48 68.5 65.4 29.957 7.14 2.2 768 0.00 0.00 0.00 0.00
05/04/26 3:54:21 PM 38 7.0 24.0 56 48 68.6 65.4 29.956 7.14 2.8 768 0.00 0.00 0.00 0.00
05/04/26 3:55:32 PM 35 7.0 24.0 56 48 68.5 65.4 29.957 7.14 2.0 768 0.00 0.00 0.00 0.00
05/04/26 3:56:24 PM 35 9.0 24.0 56 48 68.6 65.4 29.956 7.14 2.5 768 0.00 0.00 0.00 0.00
05/04/26 3:57:17 PM 35 5.0 24.0 56 49 68.6 65.4 29.958 7.14 1.7 768 0.00 0.00 0.00 0.00
05/04/26 3:58:30 PM 35 3.0 24.0 56 49 68.6 65.4 29.958 7.14 1.7 345 0.00 0.00 0.00 0.00
05/04/26 3:59:16 PM 36 2.0 24.0 56 49 68.7 65.4 29.958 7.14 1.5 418 0.00 0.00 0.00 0.00
05/04/26 4:00:33 PM 35 14.0 24.0 56 49 68.6 65.5 29.958 7.14 1.8 403 0.00 0.00 0.00 0.00
05/04/26 4:01:25 PM 36 4.0 24.0 56 49 68.6 65.5 29.956 7.14 1.8 415 0.00 0.00 0.00 0.00
05/04/26 4:02:17 PM 32 5.0 24.0 56 48 68.6 65.6 29.955 7.14 1.6 367 0.00 0.00 0.00 0.00
05/04/26 4:03:28 PM 37 12.0 24.0 56 48 68.7 65.6 29.957 7.14 1.5 345 0.00 0.00 0.00 0.00
05/04/26 4:04:17 PM 37 10.0 24.0 56 48 68.7 65.6 29.957 7.14 1.4 308 0.00 0.00 0.00 0.00
05/04/26 4:05:31 PM 34 13.0 24.0 56 48 68.7 65.4 29.957 7.14 1.4 308 0.00 0.00 0.00 0.00
05/04/26 4:06:20 PM 32 4.0 24.0 56 48 68.7 65.3 29.955 7.14 1.4 308 0.00 0.00 0.00 0.00
05/04/26 4:07:33 PM 35 2.0 24.0 56 49 68.8 65.2 29.952 7.14 1.4 306 0.00 0.00 0.00 0.00
05/04/26 4:08:23 PM 37 3.0 24.0 56 49 68.7 65.1 29.951 7.14 1.5 345 0.00 0.00 0.00 0.00
05/04/26 4:09:27 PM 38 6.0 24.0 56 50 68.8 65.2 29.947 7.14 2.3 345 0.00 0.00 0.00 0.00
05/04/26 4:10:16 PM 35 5.0 24.0 56 49 68.8 65.2 29.949 7.14 1.5 345 0.00 0.00 0.00 0.00
05/04/26 4:11:27 PM 36 7.0 24.0 56 49 68.7 65.4 29.951 7.14 1.5 334 0.00 0.00 0.00 0.00
05/04/26 4:12:19 PM 38 4.0 24.0 56 48 68.8 65.5 29.951 7.14 1.4 304 0.00 0.00 0.00 0.00
05/04/26 4:13:33 PM 32 5.0 24.0 56 48 68.8 65.6 29.954 7.14 1.3 274 0.00 0.00 0.00 0.00
05/04/26 4:14:22 PM 34 9.0 24.0 56 48 68.8 65.6 29.952 7.14 1.3 248 0.00 0.00 0.00 0.00
05/04/26 4:15:32 PM 38 9.0 24.0 56 48 68.7 65.6 29.953 7.14 1.1 225 0.00 0.00 0.00 0.00
05/04/26 4:16:22 PM 36 10.0 24.0 56 47 68.8 65.5 29.951 7.14 1.0 225 0.00 0.00 0.00 0.00
05/04/26 4:17:35 PM 32 8.0 24.0 56 47 68.7 65.3 29.951 7.14 1.0 190 0.00 0.00 0.00 0.00
05/04/26 4:18:27 PM 35 10.0 24.0 56 47 68.8 65.1 29.950 7.14 0.8 181 0.00 0.00 0.00 0.00
05/04/26 4:19:19 PM 36 7.0 24.0 56 48 68.8 65.0 29.951 7.14 0.8 174 0.00 0.00 0.00 0.00
05/04/26 4:20:27 PM 36 9.0 24.0 56 49 68.8 64.8 29.951 7.14 0.7 169 0.00 0.00 0.00 0.00
05/04/26 4:21:19 PM 38 7.0 24.0 56 49 68.7 64.7 29.950 7.14 0.7 160 0.00 0.00 0.00 0.00
05/04/26 4:22:33 PM 32 4.0 24.0 56 49 68.8 64.5 29.951 7.14 0.6 160 0.00 0.00 0.00 0.00
05/04/26 4:23:22 PM 35 5.0 24.0 56 49 68.8 64.5 29.951 7.14 0.6 160 0.00 0.00 0.00 0.00
05/04/26 4:24:35 PM 34 6.0 24.0 56 49 68.7 64.4 29.951 7.14 0.5 160 0.00 0.00 0.00 0.00
05/04/26 4:25:28 PM 37 5.0 24.0 56 50 68.7 64.3 29.952 7.14 0.5 160 0.00 0.00 0.00 0.00
05/04/26 4:26:35 PM 36 4.0 24.0 56 51 68.7 64.2 29.951 7.14 0.0 100 0.00 0.00 0.00 0.00
05/04/26 4:27:28 PM 34 15.0 24.0 56 51 68.7 64.1 29.953 7.14 0.0 95 0.00 0.00 0.00 0.00
05/04/26 4:28:20 PM 35 10.0 24.0 56 52 68.7 64.0 29.953 7.14 0.0 91 0.00 0.00 0.00 0.00
05/04/26 4:29:33 PM 37 10.0 24.0 56 52 68.6 63.9 29.950 7.14 0.0 91 0.00 0.00 0.00 0.00
05/04/26 4:30:47 PM 35 6.0 24.0 56 53 68.6 63.8 29.954 7.14 0.0 95 0.00 0.00 0.00 0.00
05/04/26 4:31:15 PM 32 6.0 24.0 56 53 68.6 63.7 29.953 7.14 0.0 98 0.00 0.00 0.00 0.00
05/04/26 4:32:26 PM 35 6.0 24.0 56 53 68.6 63.7 29.954 7.14 0.0 100 0.00 0.00 0.00 0.00
05/04/26 4:33:18 PM 38 10.0 24.0 56 54 68.6 63.6 29.954 7.14 0.0 98 0.00 0.00 0.00 0.00
05/04/26 4:34:28 PM 32 8.0 24.0 56 55 68.6 63.5 29.954 7.14 0.0 95 0.00 0.00 0.00 0.00
05/04/26 4:35:21 PM 36 6.0 24.0 56 55 68.5 63.4 29.954 7.14 0.0 95 0.00 0.00 0.00 0.00
05/04/26 4:36:34 PM 32 6.0 24.0 56 55 68.6 63.3 29.952 7.14 0.0 100 0.00 0.00 0.00 0.00
05/04/26 4:37:20 PM 32 5.0 24.0 56 55 68.5 63.3 29.952 7.14 0.0 281 0.00 0.00 0.00 0.00
05/04/26 4:38:34 PM 35 11.0 24.0 56 56 68.5 63.2 29.952 7.14 0.0 281 0.00 0.00 0.00 0.00
05/04/26 4:39:26 PM 34 14.0 24.0 56 55 68.5 63.2 29.953 7.14 0.0 165 0.00 0.00 0.00 0.00
05/04/26 4:40:19 PM 35 13.0 24.0 56 56 68.4 63.1 29.955 7.14 0.0 134 0.00 0.00 0.00 0.00
05/04/26 4:41:29 PM 34 10.0 24.0 56 56 68.4 63.0 29.953 7.14 0.0 142 0.00 0.00 0.00 0.00
05/04/26 4:42:18 PM 38 7.0 24.0 56 56 68.4 63.0 29.954 7.14 0.5 142 0.00 0.00 0.00 0.00
05/04/26 4:43:29 PM 38 6.0 24.0 56 56 68.4 62.9 29.956 7.14 0.5 146 0.00 0.00 0.00 0.00
05/04/26 4:44:21 PM 32 5.0 24.0 56 56 68.4 62.8 29.954 7.14 0.5 151 0.00 0.00 0.00 0.00
05/04/26 4:45:35 PM 32 4.0 24.0 56 57 68.4 62.8 29.956 7.14 0.5 160 0.00 0.00 0.00 0.00
05/04/26 4:46:27 PM 32 6.0 24.0 56 56 68.4 62.8 29.956 7.14 0.6 163 0.00 0.00 0.00 0.00
05/04/26 4:47:16 PM 36 7.0 24.0 56 56 68.3 62.8 29.957 7.14 0.6 171 0.00 0.00 0.00 0.00
05/04/26 4:48:27 PM 36 12.0 24.0 56 57 68.4 62.8 29.957 7.14 0.6 181 0.00 0.00 0.00 0.00
05/04/26 4:49:19 PM 38 9.0 24.0 56 56 68.3 62.8 29.961 7.14 0.6 192 0.00 0.00 0.00 0.00
05/04/26 4:50:32 PM 38 10.0 24.0 56 55 68.3 62.8 29.957 7.14 0.7 200 0.00 0.00 0.00 0.00
05/04/26 4:51:25 PM 36 11.0 24.0 56 55 68.3 62.7 29.957 7.14 0.7 207 0.00 0.00 0.00 0.00
05/04/26 4:52:17 PM 30 4.0 24.0 56 56 68.3 62.7 29.958 7.14 0.7 216 0.00 0.00 0.00 0.00
05/04/26 4:53:25 PM 34 11.0 24.0 56 56 68.3 62.7 29.958 7.14 0.8 230 0.00 0.00 0.00 0.00
05/04/26 4:54:17 PM 36 11.0 24.0 56 56 68.3 62.7 29.956 7.14 1.0 230 0.00 0.00 0.00 0.00
05/04/26 4:55:30 PM 35 12.0 24.0 56 56 68.3 62.7 29.955 7.14 0.9 269 0.00 0.00 0.00 0.00
05/04/26 4:56:20 PM 35 10.0 24.0 56 56 68.3 62.8 29.955 7.14 0.9 432 0.00 0.00 0.00 0.00
05/04/26 4:57:33 PM 37 9.0 24.0 56 56 68.3 62.8 29.959 7.14 1.3 432 0.00 0.00 0.00 0.00
05/04/26 4:58:23 PM 35 9.0 24.0 56 57 68.3 62.9 29.955 7.14 1.3 668 0.00 0.00 0.00 0.00
05/04/26 4:59:33 PM 38 11.0 24.0 56 57 68.3 63.1 29.956 7.14 1.3 652 0.00 0.00 0.00 0.00
05/04/26 5:00:28 PM 35 5.0 24.0 56 57 68.3 63.2 29.957 7.14 1.3 640 0.00 0.00 0.00 0.00
05/04/26 5:01:18 PM 38 12.0 24.0 56 57 68.3 63.4 29.960 7.14 1.3 631 0.00 0.00 0.00 0.00
05/04/26 5:02:31 PM 34 21.0 24.0 56 56 68.3 63.6 29.959 7.14 1.3 613 0.00 0.00 0.00 0.00
05/04/26 5:03:23 PM 36 13.0 24.0 56 56 68.3 63.7 29.960 7.14 1.3 599 0.00 0.00 0.00 0.00
05/04/26 5:04:31 PM 32 10.0 24.0 56 55 68.4 63.8 29.957 7.14 1.2 589 0.00 0.00 0.00 0.00
05/04/26 5:05:23 PM 35 12.0 24.0 56 55 68.3 63.9 29.962 7.14 1.2 573 0.00 0.00 0.00 0.00
05/04/26 5:06:37 PM 35 9.0 24.0 56 54 68.4 63.9 29.960 7.14 1.2 559 0.00 0.00 0.00 0.00
05/04/26 5:07:26 PM 35 14.0 24.0 56 54 68.4 63.9 29.963 7.14 1.2 548 0.00 0.00 0.00 0.00
05/04/26 5:08:18 PM 36 10.0 24.0 56 54 68.4 64.0 29.965 7.14 1.2 538 0.00 0.00 0.00 0.00
05/04/26 5:09:26 PM 36 21.0 24.0 56 54 68.4 64.0 29.961 7.14 1.1 531 0.00 0.00 0.00 0.00
05/04/26 5:10:18 PM 35 15.0 24.0 56 54 68.4 64.0 29.964 7.14 1.1 522 0.00 0.00 0.00 0.00
05/04/26 5:11:28 PM 32 6.0 24.0 56 54 68.4 63.9 29.962 7.14 1.1 527 0.00 0.00 0.00 0.00
05/04/26 5:12:21 PM 36 6.0 24.0 56 54 68.5 64.0 29.965 7.14 1.1 545 0.00 0.00 0.00 0.00
05/04/26 5:13:31 PM 39 4.0 24.0 56 54 68.5 64.0 29.965 7.14 1.1 527 0.00 0.00 0.00 0.00
05/04/26 5:14:21 PM 34 6.0 24.0 56 55 68.4 64.0 29.962 7.14 1.1 441 0.00 0.00 0.00 0.00
05/04/26 5:15:34 PM 36 4.0 24.0 56 54 68.4 64.0 29.963 7.14 0.9 471 0.00 0.00 0.00 0.00
05/04/26 5:16:26 PM 35 10.0 24.0 56 54 68.5 64.1 29.963 7.14 0.8 471 0.00 0.00 0.00 0.00
05/04/26 5:17:19 PM 37 11.0 24.0 56 54 68.5 64.0 29.967 7.14 0.9 257 0.00 0.00 0.00 0.00
05/04/26 5:18:29 PM 36 17.0 24.0 56 54 68.4 63.9 29.965 7.14 0.7 169 0.00 0.00 0.00 0.00
05/04/26 5:19:25 PM 35 14.0 24.0 56 54 68.4 63.8 29.965 7.14 0.7 174 0.00 0.00 0.00 0.00
05/04/26 5:20:32 PM 32 11.0 24.0 56 54 68.5 63.6 29.965 7.14 0.8 218 0.00 0.00 0.00 0.00
05/04/26 5:21:24 PM 32 13.0 24.0 56 54 68.4 63.5 29.964 7.14 0.8 278 0.00 0.00 0.00 0.00
05/04/26 5:22:35 PM 34 10.0 24.0 56 55 68.4 63.3 29.967 7.14 0.9 278 0.00 0.00 0.00 0.00
05/04/26 5:23:27 PM 32 5.0 24.0 56 55 68.4 63.2 29.964 7.14 0.7 399 0.00 0.00 0.00 0.00
05/04/26 5:24:20 PM 35 14.0 24.0 56 55 68.4 63.2 29.969 7.14 0.7 325 0.00 0.00 0.00 0.00
05/04/26 5:25:27 PM 35 4.0 24.0 56 55 68.4 63.0 29.969 7.14 0.7 230 0.00 0.00 0.00 0.00
05/04/26 5:26:20 PM 36 9.0 24.0 56 56 68.4 63.0 29.965 7.14 0.7 209 0.00 0.00 0.00 0.00
05/04/26 5:27:33 PM 35 9.0 24.0 56 56 68.4 62.9 29.970 7.14 0.6 227 0.00 0.00 0.00 0.00
05/04/26 5:28:22 PM 38 14.0 24.0 56 56 68.4 62.8 29.968 7.14 0.6 197 0.00 0.00 0.00 0.00
05/04/26 5:29:36 PM 38 16.0 24.0 56 56 68.4 62.7 29.968 7.14 0.6 197 0.00 0.00 0.00 0.00
05/04/26 5:30:25 PM 36 10.0 24.0 56 56 68.3 62.7 29.969 7.14 0.6 186 0.00 0.00 0.00 0.00
05/04/26 5:31:36 PM 38 14.0 24.0 56 56 68.3 62.5 29.970 7.14 0.5 193 0.00 0.00 0.00 0.00
05/04/26 5:32:28 PM 38 7.0 24.0 56 56 68.3 62.4 29.968 7.14 0.5 186 0.00 0.00 0.00 0.00
05/04/26 5:33:21 PM 38 6.0 24.0 56 56 68.3 62.3 29.968 7.14 0.5 188 0.00 0.00 0.00 0.00
05/04/26 5:34:31 PM 32 16.0 24.0 56 57 68.3 62.3 29.967 7.14 0.5 181 0.00 0.00 0.00 0.00
05/04/26 5:35:23 PM 32 13.0 24.0 56 57 68.3 62.2 29.968 7.14 0.5 181 0.00 0.00 0.00 0.00
05/04/26 5:36:31 PM 38 7.0 24.0 56 57 68.2 62.1 29.967 7.14 0.5 181 0.00 0.00 0.00 0.00
05/04/26 5:37:23 PM 35 5.0 24.0 56 57 68.2 62.0 29.967 7.14 0.5 237 0.00 0.00 0.00 0.00
05/04/26 5:38:16 PM 32 10.0 24.0 56 57 68.2 62.0 29.969 7.14 0.5 181 0.00 0.00 0.00 0.00
05/04/26 5:39:29 PM 37 12.0 24.0 56 58 68.1 61.9 29.969 7.14 0.5 178 0.00 0.00 0.00 0.00
05/04/26 5:40:21 PM 38 7.0 24.0 56 58 68.1 61.8 29.969 7.14 0.0 174 0.00 0.00 0.00 0.00
05/04/26 5:41:29 PM 38 9.0 24.0 56 59 68.1 61.8 29.966 7.14 0.0 171 0.00 0.00 0.00 0.00
05/04/26 5:42:21 PM 36 9.0 24.0 56 58 68.1 61.8 29.966 7.14 0.0 156 0.00 0.00 0.00 0.00
05/04/26 5:43:32 PM 36 9.0 24.0 56 59 68.1 61.7 29.967 7.14 0.0 144 0.00 0.00 0.00 0.00
05/04/26 5:44:24 PM 36 10.0 24.0 56 59 68.1 61.7 29.966 7.14 0.0 139 0.00 0.00 0.00 0.00
05/04/26 5:45:20 PM 34 4.0 24.0 56 59 68.0 61.6 29.965 7.14 0.0 139 0.00 0.00 0.00 0.00
05/04/26 5:46:27 PM 37 7.0 24.0 56 59 68.1 61.6 29.966 7.14 0.0 137 0.00 0.00 0.00 0.00
05/04/26 5:47:17 PM 36 9.0 24.0 56 59 68.0 61.5 29.964 7.14 0.0 216 0.00 0.00 0.00 0.00
05/04/26 5:48:30 PM 38 12.0 24.0 56 59 68.0 61.5 29.966 7.14 0.0 141 0.00 0.00 0.00 0.00
05/04/26 5:49:20 PM 32 9.0 24.0 56 59 68.0 61.5 29.965 7.14 0.0 137 0.00 0.00 0.00 0.00

University Police wind advisory reference

For campus closure information please call the campus Emergency Hotline at (909) 537-5999

© All rights reserved. Unauthorized duplication or distribution is prohibited

Never base important decisions on this or any weather information obtained from the Internet

California State University, San Bernardino
5500 University Parkway, San Bernardino, CA. 92407
Phone: (909) 537-5108, Email: Weather Webmaster
Last Updated: